Time,TemperatureF,DewpointF,PressureIn,WindDirection,WindDirectionDegrees,WindSpeedMPH,WindSpeedGustMPH,Humidity,HourlyPrecipIn,Conditions,Clouds,dailyrainin,SoftwareType,DateUTC
2013-04-06 00:00:00,48.3,25.7,29.96,ESE,123,3.0,13.0,41,0.00,,---,0.00,VWS V14.01,2013-04-06 05:00:00,
2013-04-06 00:02:00,48.3,25.7,29.96,ESE,115,1.0,6.0,41,0.00,,---,0.00,VWS V14.01,2013-04-06 05:02:00,
2013-04-06 00:03:00,48.3,25.7,29.96,East,88,1.0,6.0,41,0.00,,---,0.00,VWS V14.01,2013-04-06 05:03:00,
2013-04-06 00:05:00,48.3,25.7,29.96,SE,128,5.0,6.0,41,0.00,,---,0.00,VWS V14.01,2013-04-06 05:05:00,
2013-04-06 00:07:00,48.3,25.7,29.96,ENE,68,1.0,10.0,41,0.00,,---,0.00,VWS V14.01,2013-04-06 05:07:00,
2013-04-06 00:08:00,48.3,25.7,29.96,SE,130,4.0,10.0,41,0.00,,---,0.00,VWS V14.01,2013-04-06 05:08:00,
2013-04-06 00:11:00,48.3,25.7,29.96,ESE,121,3.0,11.0,41,0.00,,---,0.00,VWS V14.01,2013-04-06 05:11:00,
2013-04-06 00:12:00,48.3,25.7,29.96,South,173,2.0,11.0,41,0.00,,---,0.00,VWS V14.01,2013-04-06 05:12:00,
2013-04-06 00:13:00,48.3,25.7,29.96,ESE,116,3.0,11.0,41,0.00,,---,0.00,VWS V14.01,2013-04-06 05:13:00,
2013-04-06 00:15:00,48.3,25.7,29.96,East,89,2.0,11.0,41,0.00,,---,0.00,VWS V14.01,2013-04-06 05:15:00,
2013-04-06 00:16:00,48.2,25.6,29.96,SE,126,5.0,11.0,41,0.00,,---,0.00,VWS V14.01,2013-04-06 05:16:00,
2013-04-06 00:17:00,48.2,25.6,29.96,ESE,109,4.0,11.0,41,0.00,,---,0.00,VWS V14.01,2013-04-06 05:17:00,
2013-04-06 00:18:00,48.2,25.6,29.96,SE,130,1.0,11.0,41,0.00,,---,0.00,VWS V14.01,2013-04-06 05:18:00,
2013-04-06 00:20:00,48.2,25.6,29.96,SE,144,4.0,11.0,41,0.00,,---,0.00,VWS V14.01,2013-04-06 05:20:00,
2013-04-06 00:22:00,48.1,25.5,29.96,ESE,120,0.0,11.0,41,0.00,,---,0.00,VWS V14.01,2013-04-06 05:22:00,
2013-04-06 00:23:00,48.1,26.1,29.96,ENE,78,2.0,11.0,42,0.00,,---,0.00,VWS V14.01,2013-04-06 05:23:00,
2013-04-06 00:26:00,48.0,26.0,29.96,South,175,0.0,11.0,42,0.00,,---,0.00,VWS V14.01,2013-04-06 05:26:00,
2013-04-06 00:27:00,48.0,26.0,29.96,NE,42,3.0,11.0,42,0.00,,---,0.00,VWS V14.01,2013-04-06 05:27:00,
2013-04-06 00:28:00,48.0,25.4,29.96,SE,133,4.0,11.0,41,0.00,,---,0.00,VWS V14.01,2013-04-06 05:28:00,
2013-04-06 00:31:00,47.9,25.9,29.96,SE,146,3.0,3.0,42,0.00,,---,0.00,VWS V14.01,2013-04-06 05:31:00,
2013-04-06 00:32:00,47.9,25.9,29.96,ESE,109,1.0,3.0,42,0.00,,---,0.00,VWS V14.01,2013-04-06 05:32:00,
2013-04-06 00:33:00,47.9,25.9,29.96,ESE,123,3.0,3.0,42,0.00,,---,0.00,VWS V14.01,2013-04-06 05:33:00,
2013-04-06 00:37:00,47.9,25.9,29.95,SSE,155,9.0,9.0,42,0.00,,---,0.00,VWS V14.01,2013-04-06 05:37:00,
2013-04-06 00:38:00,47.8,25.3,29.95,ESE,119,1.0,9.0,41,0.00,,---,0.00,VWS V14.01,2013-04-06 05:38:00,
2013-04-06 00:42:00,47.8,25.8,29.95,South,170,2.0,9.0,42,0.00,,---,0.00,VWS V14.01,2013-04-06 05:42:00,
2013-04-06 00:43:00,47.8,25.8,29.95,South,170,1.0,9.0,42,0.00,,---,0.00,VWS V14.01,2013-04-06 05:43:00,
2013-04-06 00:44:00,47.8,25.3,29.95,SE,129,3.0,9.0,41,0.00,,---,0.00,VWS V14.01,2013-04-06 05:44:00,
2013-04-06 00:47:00,47.8,25.3,29.95,East,92,2.0,9.0,41,0.00,,---,0.00,VWS V14.01,2013-04-06 05:47:00,
2013-04-06 00:48:00,47.8,25.3,29.95,SSE,154,3.0,9.0,41,0.00,,---,0.00,VWS V14.01,2013-04-06 05:48:00,
2013-04-06 00:49:00,47.8,25.3,29.95,SSE,155,1.0,9.0,41,0.00,,---,0.00,VWS V14.01,2013-04-06 05:49:00,
2013-04-06 00:52:00,47.8,24.7,29.95,SSE,166,3.0,10.0,40,0.00,,---,0.00,VWS V14.01,2013-04-06 05:52:00,
2013-04-06 00:53:00,47.8,25.3,29.95,SSE,164,5.0,10.0,41,0.00,,---,0.00,VWS V14.01,2013-04-06 05:53:00,
2013-04-06 00:54:00,47.8,24.7,29.95,SE,135,2.0,10.0,40,0.00,,---,0.00,VWS V14.01,2013-04-06 05:54:00,
2013-04-06 00:57:00,47.8,24.7,29.95,ESE,110,2.0,10.0,40,0.00,,---,0.00,VWS V14.01,2013-04-06 05:57:00,
2013-04-06 00:58:00,47.8,24.7,29.95,ESE,109,4.0,10.0,40,0.00,,---,0.00,VWS V14.01,2013-04-06 05:58:00,
2013-04-06 00:59:00,47.8,24.7,29.95,SE,126,7.0,10.0,40,0.00,,---,0.00,VWS V14.01,2013-04-06 05:59:00,
2013-04-06 01:02:00,47.8,24.7,29.95,SSE,150,3.0,4.0,40,0.00,,---,0.00,VWS V14.01,2013-04-06 06:02:00,
2013-04-06 01:04:00,47.8,24.7,29.95,SE,129,3.0,11.0,40,0.00,,---,0.00,VWS V14.01,2013-04-06 06:04:00,
2013-04-06 01:07:00,47.8,24.7,29.96,SE,136,7.0,11.0,40,0.00,,---,0.00,VWS V14.01,2013-04-06 06:07:00,
2013-04-06 01:09:00,47.8,24.7,29.95,SE,144,10.0,11.0,40,0.00,,---,0.00,VWS V14.01,2013-04-06 06:09:00,
2013-04-06 01:10:00,47.8,24.7,29.96,SE,137,3.0,11.0,40,0.00,,---,0.00,VWS V14.01,2013-04-06 06:10:00,
2013-04-06 01:12:00,47.8,25.3,29.95,ENE,69,6.0,11.0,41,0.00,,---,0.00,VWS V14.01,2013-04-06 06:12:00,
2013-04-06 01:14:00,47.7,24.6,29.95,ESE,113,6.0,11.0,40,0.00,,---,0.00,VWS V14.01,2013-04-06 06:14:00,
2013-04-06 01:15:00,47.7,24.6,29.95,SE,136,2.0,11.0,40,0.00,,---,0.00,VWS V14.01,2013-04-06 06:15:00,
2013-04-06 01:18:00,47.7,25.2,29.95,East,95,3.0,11.0,41,0.00,,---,0.00,VWS V14.01,2013-04-06 06:18:00,
2013-04-06 01:20:00,47.7,25.2,29.95,SE,129,4.0,11.0,41,0.00,,---,0.00,VWS V14.01,2013-04-06 06:20:00,
2013-04-06 01:21:00,47.6,25.1,29.95,SSE,155,3.0,11.0,41,0.00,,---,0.00,VWS V14.01,2013-04-06 06:21:00,
2013-04-06 01:23:00,47.6,25.1,29.95,SE,128,0.0,11.0,41,0.00,,---,0.00,VWS V14.01,2013-04-06 06:23:00,
2013-04-06 01:25:00,47.5,25.0,29.95,SSE,162,11.0,12.0,41,0.00,,---,0.00,VWS V14.01,2013-04-06 06:25:00,
2013-04-06 01:27:00,47.5,25.6,29.95,SE,137,2.0,12.0,42,0.00,,---,0.00,VWS V14.01,2013-04-06 06:27:00,
2013-04-06 01:28:00,47.5,25.6,29.95,SSE,159,5.0,12.0,42,0.00,,---,0.00,VWS V14.01,2013-04-06 06:28:00,
2013-04-06 01:30:00,47.4,25.5,29.95,East,101,0.0,12.0,42,0.00,,---,0.00,VWS V14.01,2013-04-06 06:30:00,
2013-04-06 01:31:00,47.4,25.5,29.95,SE,145,2.0,3.0,42,0.00,,---,0.00,VWS V14.01,2013-04-06 06:31:00,
2013-04-06 01:32:00,47.4,25.5,29.96,SE,127,3.0,3.0,42,0.00,,---,0.00,VWS V14.01,2013-04-06 06:32:00,
2013-04-06 01:33:00,47.4,25.5,29.96,SE,146,4.0,5.0,42,0.00,,---,0.00,VWS V14.01,2013-04-06 06:33:00,
2013-04-06 01:35:00,47.3,26.0,29.95,SE,130,1.0,6.0,43,0.00,,---,0.00,VWS V14.01,2013-04-06 06:35:00,
2013-04-06 01:36:00,47.3,26.0,29.95,SE,130,1.0,6.0,43,0.00,,---,0.00,VWS V14.01,2013-04-06 06:36:00,
2013-04-06 01:37:00,47.3,26.0,29.95,SE,140,6.0,6.0,43,0.00,,---,0.00,VWS V14.01,2013-04-06 06:37:00,
2013-04-06 01:38:00,47.3,26.0,29.95,SSE,155,3.0,9.0,43,0.00,,---,0.00,VWS V14.01,2013-04-06 06:38:00,
2013-04-06 01:40:00,47.2,25.9,29.95,SSE,151,6.0,9.0,43,0.00,,---,0.00,VWS V14.01,2013-04-06 06:40:00,
2013-04-06 01:41:00,47.2,25.9,29.95,SSE,151,3.0,9.0,43,0.00,,---,0.00,VWS V14.01,2013-04-06 06:41:00,
2013-04-06 01:42:00,47.2,25.9,29.95,East,94,2.0,9.0,43,0.00,,---,0.00,VWS V14.01,2013-04-06 06:42:00,
2013-04-06 01:43:00,47.2,25.9,29.95,SE,142,1.0,9.0,43,0.00,,---,0.00,VWS V14.01,2013-04-06 06:43:00,
2013-04-06 01:45:00,47.2,25.9,29.96,ESE,104,4.0,9.0,43,0.00,,---,0.00,VWS V14.01,2013-04-06 06:45:00,
2013-04-06 01:47:00,47.1,25.8,29.95,SE,135,1.0,9.0,43,0.00,,---,0.00,VWS V14.01,2013-04-06 06:47:00,
2013-04-06 01:49:00,47.1,26.3,29.96,SSE,162,0.0,9.0,44,0.00,,---,0.00,VWS V14.01,2013-04-06 06:49:00,
2013-04-06 01:50:00,47.1,25.8,29.96,ESE,121,2.0,9.0,43,0.00,,---,0.00,VWS V14.01,2013-04-06 06:50:00,
2013-04-06 01:52:00,47.0,26.2,29.96,SE,146,5.0,9.0,44,0.00,,---,0.00,VWS V14.01,2013-04-06 06:52:00,
2013-04-06 01:55:00,47.0,25.7,29.95,SE,139,2.0,9.0,43,0.00,,---,0.00,VWS V14.01,2013-04-06 06:55:00,
2013-04-06 01:56:00,47.0,26.2,29.96,ESE,119,1.0,9.0,44,0.00,,---,0.00,VWS V14.01,2013-04-06 06:56:00,
2013-04-06 01:57:00,47.0,26.2,29.95,East,88,2.0,9.0,44,0.00,,---,0.00,VWS V14.01,2013-04-06 06:57:00,
2013-04-06 02:00:00,47.0,26.2,29.95,SSE,168,2.0,9.0,44,0.00,,---,0.00,VWS V14.01,2013-04-06 07:00:00,
2013-04-06 02:03:00,47.0,26.2,29.95,SE,133,0.0,3.0,44,0.00,,---,0.00,VWS V14.01,2013-04-06 07:03:00,
2013-04-06 02:05:00,46.9,26.1,29.95,SSE,153,5.0,5.0,44,0.00,,---,0.00,VWS V14.01,2013-04-06 07:05:00,
2013-04-06 02:08:00,46.9,26.7,29.95,ESE,102,0.0,5.0,45,0.00,,---,0.00,VWS V14.01,2013-04-06 07:08:00,
2013-04-06 02:10:00,46.9,26.1,29.95,SE,127,2.0,6.0,44,0.00,,---,0.00,VWS V14.01,2013-04-06 07:10:00,
2013-04-06 02:13:00,46.9,26.7,29.95,South,180,3.0,6.0,45,0.00,,---,0.00,VWS V14.01,2013-04-06 07:13:00,
2013-04-06 02:15:00,46.9,26.1,29.95,SE,142,3.0,6.0,44,0.00,,---,0.00,VWS V14.01,2013-04-06 07:15:00,
2013-04-06 02:18:00,46.9,26.1,29.95,SE,146,2.0,6.0,44,0.00,,---,0.00,VWS V14.01,2013-04-06 07:18:00,
2013-04-06 02:19:00,46.9,26.7,29.95,SSE,147,4.0,6.0,45,0.00,,---,0.00,VWS V14.01,2013-04-06 07:19:00,
2013-04-06 02:20:00,46.9,26.7,29.95,ESE,119,3.0,6.0,45,0.00,,---,0.00,VWS V14.01,2013-04-06 07:20:00,
2013-04-06 02:23:00,46.9,26.7,29.95,SSE,158,1.0,6.0,45,0.00,,---,0.00,VWS V14.01,2013-04-06 07:23:00,
2013-04-06 02:24:00,46.8,26.6,29.95,ESE,109,1.0,6.0,45,0.00,,---,0.00,VWS V14.01,2013-04-06 07:24:00,
2013-04-06 02:26:00,46.8,26.6,29.95,ESE,109,0.0,6.0,45,0.00,,---,0.00,VWS V14.01,2013-04-06 07:26:00,
2013-04-06 02:29:00,46.8,26.6,29.95,ENE,78,0.0,6.0,45,0.00,,---,0.00,VWS V14.01,2013-04-06 07:29:00,
2013-04-06 02:31:00,46.8,26.6,29.94,East,94,3.0,3.0,45,0.00,,---,0.00,VWS V14.01,2013-04-06 07:31:00,
2013-04-06 02:34:00,46.8,26.6,29.94,SE,138,3.0,5.0,45,0.00,,---,0.00,VWS V14.01,2013-04-06 07:34:00,
2013-04-06 02:37:00,46.8,26.6,29.94,SE,146,1.0,5.0,45,0.00,,---,0.00,VWS V14.01,2013-04-06 07:37:00,
2013-04-06 02:39:00,46.9,27.2,29.94,ESE,117,5.0,5.0,46,0.00,,---,0.00,VWS V14.01,2013-04-06 07:39:00,
2013-04-06 02:40:00,46.9,27.2,29.94,SSE,151,3.0,5.0,46,0.00,,---,0.00,VWS V14.01,2013-04-06 07:40:00,
2013-04-06 02:42:00,46.9,27.2,29.94,SE,126,4.0,7.0,46,0.00,,---,0.00,VWS V14.01,2013-04-06 07:42:00,
2013-04-06 02:45:00,47.0,26.8,29.93,SE,142,1.0,7.0,45,0.00,,---,0.00,VWS V14.01,2013-04-06 07:45:00,
2013-04-06 02:47:00,47.0,27.3,29.93,SE,144,0.0,7.0,46,0.00,,---,0.00,VWS V14.01,2013-04-06 07:47:00,
2013-04-06 02:50:00,47.0,27.3,29.93,SE,141,2.0,7.0,46,0.00,,---,0.00,VWS V14.01,2013-04-06 07:50:00,
2013-04-06 02:52:00,46.9,28.2,29.93,SE,124,3.0,7.0,48,0.00,,---,0.00,VWS V14.01,2013-04-06 07:52:00,
2013-04-06 02:55:00,46.9,27.2,29.93,SE,132,4.0,7.0,46,0.00,,---,0.00,VWS V14.01,2013-04-06 07:55:00,
2013-04-06 02:58:00,46.9,27.2,29.93,SE,144,3.0,7.0,46,0.00,,---,0.00,VWS V14.01,2013-04-06 07:58:00,
2013-04-06 03:00:00,46.9,27.2,29.93,SSE,153,7.0,9.0,46,0.00,,---,0.00,VWS V14.01,2013-04-06 08:00:00,
2013-04-06 03:03:00,46.8,27.1,29.93,SE,146,4.0,5.0,46,0.00,,---,0.00,VWS V14.01,2013-04-06 08:03:00,
2013-04-06 03:05:00,46.8,27.6,29.93,ESE,108,2.0,6.0,47,0.00,,---,0.00,VWS V14.01,2013-04-06 08:05:00,
2013-04-06 03:08:00,46.7,27.0,29.92,NE,55,5.0,6.0,46,0.00,,---,0.00,VWS V14.01,2013-04-06 08:08:00,
2013-04-06 03:10:00,46.7,27.6,29.92,East,96,4.0,6.0,47,0.00,,---,0.00,VWS V14.01,2013-04-06 08:10:00,
2013-04-06 03:11:00,46.7,27.6,29.92,East,82,1.0,6.0,47,0.00,,---,0.00,VWS V14.01,2013-04-06 08:11:00,
2013-04-06 03:13:00,46.7,27.6,29.92,ESE,120,1.0,6.0,47,0.00,,---,0.00,VWS V14.01,2013-04-06 08:13:00,
2013-04-06 03:15:00,46.7,27.6,29.92,ESE,109,0.0,6.0,47,0.00,,---,0.00,VWS V14.01,2013-04-06 08:15:00,
2013-04-06 03:16:00,46.7,27.6,29.92,ESE,123,4.0,6.0,47,0.00,,---,0.00,VWS V14.01,2013-04-06 08:16:00,
2013-04-06 03:19:00,46.7,27.6,29.92,SSE,148,4.0,6.0,47,0.00,,---,0.00,VWS V14.01,2013-04-06 08:19:00,
2013-04-06 03:20:00,46.7,28.1,29.92,SE,133,0.0,6.0,48,0.00,,---,0.00,VWS V14.01,2013-04-06 08:20:00,
2013-04-06 03:21:00,46.7,28.1,29.92,SE,133,1.0,6.0,48,0.00,,---,0.00,VWS V14.01,2013-04-06 08:21:00,
2013-04-06 03:24:00,46.6,28.0,29.92,SSE,155,5.0,6.0,48,0.00,,---,0.00,VWS V14.01,2013-04-06 08:24:00,
2013-04-06 03:25:00,46.5,27.9,29.92,SE,136,2.0,6.0,48,0.00,,---,0.00,VWS V14.01,2013-04-06 08:25:00,
2013-04-06 03:26:00,46.5,27.9,29.92,SE,135,1.0,6.0,48,0.00,,---,0.00,VWS V14.01,2013-04-06 08:26:00,
2013-04-06 03:29:00,46.5,28.4,29.92,SE,136,3.0,6.0,49,0.00,,---,0.00,VWS V14.01,2013-04-06 08:29:00,
2013-04-06 03:30:00,46.5,28.4,29.91,ESE,117,1.0,6.0,49,0.00,,---,0.00,VWS V14.01,2013-04-06 08:30:00,
2013-04-06 03:32:00,46.5,28.4,29.92,SSE,151,1.0,4.0,49,0.00,,---,0.00,VWS V14.01,2013-04-06 08:32:00,
2013-04-06 03:34:00,46.5,28.4,29.92,East,81,1.0,4.0,49,0.00,,---,0.00,VWS V14.01,2013-04-06 08:34:00,
2013-04-06 03:36:00,46.5,28.4,29.91,SSE,155,0.0,4.0,49,0.00,,---,0.00,VWS V14.01,2013-04-06 08:36:00,
2013-04-06 03:37:00,46.4,28.3,29.92,ESE,123,4.0,4.0,49,0.00,,---,0.00,VWS V14.01,2013-04-06 08:37:00,
2013-04-06 03:40:00,46.4,28.3,29.91,ESE,112,1.0,6.0,49,0.00,,---,0.00,VWS V14.01,2013-04-06 08:40:00,
2013-04-06 03:41:00,46.5,28.4,29.92,SE,146,0.0,6.0,49,0.00,,---,0.00,VWS V14.01,2013-04-06 08:41:00,
2013-04-06 03:42:00,46.5,28.9,29.92,SE,141,2.0,6.0,50,0.00,,---,0.00,VWS V14.01,2013-04-06 08:42:00,
2013-04-06 03:45:00,46.5,28.9,29.92,SE,143,0.0,6.0,50,0.00,,---,0.00,VWS V14.01,2013-04-06 08:45:00,
2013-04-06 03:46:00,46.5,28.9,29.92,East,93,2.0,6.0,50,0.00,,---,0.00,VWS V14.01,2013-04-06 08:46:00,
2013-04-06 03:47:00,46.5,28.9,29.92,ESE,110,2.0,6.0,50,0.00,,---,0.00,VWS V14.01,2013-04-06 08:47:00,
2013-04-06 03:50:00,46.6,29.0,29.92,SSE,155,3.0,6.0,50,0.00,,---,0.00,VWS V14.01,2013-04-06 08:50:00,
2013-04-06 03:52:00,46.6,29.0,29.92,ESE,105,2.0,6.0,50,0.00,,---,0.00,VWS V14.01,2013-04-06 08:52:00,
2013-04-06 03:53:00,46.6,29.0,29.92,ESE,118,4.0,6.0,50,0.00,,---,0.00,VWS V14.01,2013-04-06 08:53:00,
2013-04-06 03:55:00,46.7,29.1,29.91,SSE,155,0.0,6.0,50,0.00,,---,0.00,VWS V14.01,2013-04-06 08:55:00,
2013-04-06 03:57:00,46.7,29.5,29.91,SSE,150,0.0,6.0,51,0.00,,---,0.00,VWS V14.01,2013-04-06 08:57:00,
2013-04-06 03:58:00,46.7,29.5,29.91,SSE,150,1.0,6.0,51,0.00,,---,0.00,VWS V14.01,2013-04-06 08:58:00,
2013-04-06 04:00:00,46.6,29.5,29.91,SSE,162,1.0,4.0,51,0.00,,---,0.00,VWS V14.01,2013-04-06 09:00:00,
2013-04-06 04:02:00,46.6,29.5,29.91,SSE,158,1.0,5.0,51,0.00,,---,0.00,VWS V14.01,2013-04-06 09:02:00,
2013-04-06 04:03:00,46.6,29.5,29.91,SSE,155,2.0,5.0,51,0.00,,---,0.00,VWS V14.01,2013-04-06 09:03:00,
2013-04-06 04:05:00,46.7,30.0,29.91,SE,128,4.0,6.0,52,0.00,,---,0.00,VWS V14.01,2013-04-06 09:05:00,
2013-04-06 04:08:00,46.9,30.2,29.90,SE,126,3.0,10.0,52,0.00,,---,0.00,VWS V14.01,2013-04-06 09:08:00,
2013-04-06 04:11:00,47.2,30.5,29.90,SE,146,4.0,10.0,52,0.00,,---,0.00,VWS V14.01,2013-04-06 09:11:00,
2013-04-06 04:13:00,47.3,30.6,29.90,SSE,165,2.0,10.0,52,0.00,,---,0.00,VWS V14.01,2013-04-06 09:13:00,
2013-04-06 04:14:00,47.4,30.7,29.90,SSE,149,9.0,11.0,52,0.00,,---,0.00,VWS V14.01,2013-04-06 09:14:00,
2013-04-06 04:16:00,47.5,30.8,29.90,SSE,150,4.0,11.0,52,0.00,,---,0.00,VWS V14.01,2013-04-06 09:16:00,
2013-04-06 04:18:00,47.6,30.9,29.90,SSE,155,6.0,11.0,52,0.00,,---,0.00,VWS V14.01,2013-04-06 09:18:00,
2013-04-06 04:19:00,47.6,30.9,29.90,SE,138,8.0,11.0,52,0.00,,---,0.00,VWS V14.01,2013-04-06 09:19:00,
2013-04-06 04:21:00,47.7,31.0,29.90,SE,146,4.0,12.0,52,0.00,,---,0.00,VWS V14.01,2013-04-06 09:21:00,
2013-04-06 04:23:00,47.7,31.0,29.90,SSE,154,4.0,12.0,52,0.00,,---,0.00,VWS V14.01,2013-04-06 09:23:00,
2013-04-06 04:24:00,47.7,31.0,29.90,SSE,154,4.0,12.0,52,0.00,,---,0.00,VWS V14.01,2013-04-06 09:24:00,
2013-04-06 04:26:00,47.7,31.0,29.90,SSE,154,4.0,12.0,52,0.00,,---,0.00,VWS V14.01,2013-04-06 09:26:00,
2013-04-06 04:28:00,47.9,31.1,29.89,SSE,162,1.0,12.0,52,0.00,,---,0.00,VWS V14.01,2013-04-06 09:28:00,
2013-04-06 04:29:00,47.9,31.6,29.90,SE,136,1.0,12.0,53,0.00,,---,0.00,VWS V14.01,2013-04-06 09:29:00,
2013-04-06 04:31:00,47.9,31.1,29.89,SE,128,10.0,10.0,52,0.00,,---,0.00,VWS V14.01,2013-04-06 09:31:00,
2013-04-06 04:33:00,47.9,31.6,29.89,SE,129,4.0,10.0,53,0.00,,---,0.00,VWS V14.01,2013-04-06 09:33:00,
2013-04-06 04:34:00,48.0,31.7,29.89,SE,146,11.0,11.0,53,0.00,,---,0.00,VWS V14.01,2013-04-06 09:34:00,
2013-04-06 04:35:00,48.0,31.2,29.89,SSE,154,4.0,11.0,52,0.00,,---,0.00,VWS V14.01,2013-04-06 09:35:00,
2013-04-06 04:36:00,48.0,31.7,29.89,South,169,4.0,11.0,53,0.00,,---,0.00,VWS V14.01,2013-04-06 09:36:00,
2013-04-06 04:39:00,48.0,31.7,29.89,SSE,159,5.0,11.0,53,0.00,,---,0.00,VWS V14.01,2013-04-06 09:39:00,
2013-04-06 04:40:00,48.1,31.8,29.89,SSE,155,6.0,11.0,53,0.00,,---,0.00,VWS V14.01,2013-04-06 09:40:00,
2013-04-06 04:42:00,48.1,32.3,29.89,SSE,151,5.0,11.0,54,0.00,,---,0.00,VWS V14.01,2013-04-06 09:42:00,
2013-04-06 04:44:00,48.0,32.2,29.89,SSE,161,5.0,11.0,54,0.00,,---,0.00,VWS V14.01,2013-04-06 09:44:00,
2013-04-06 04:45:00,48.1,32.3,29.89,SSE,157,5.0,11.0,54,0.00,,---,0.00,VWS V14.01,2013-04-06 09:45:00,
2013-04-06 04:46:00,48.1,32.3,29.89,SSE,167,6.0,12.0,54,0.00,,---,0.00,VWS V14.01,2013-04-06 09:46:00,
2013-04-06 04:49:00,48.1,32.3,29.88,SSE,149,9.0,12.0,54,0.00,,---,0.00,VWS V14.01,2013-04-06 09:49:00,
2013-04-06 04:50:00,48.1,32.3,29.89,SSE,160,8.0,12.0,54,0.00,,---,0.00,VWS V14.01,2013-04-06 09:50:00,
2013-04-06 04:51:00,48.1,32.3,29.88,SSE,155,4.0,12.0,54,0.00,,---,0.00,VWS V14.01,2013-04-06 09:51:00,
2013-04-06 04:52:00,48.1,32.3,29.88,SSE,149,7.0,12.0,54,0.00,,---,0.00,VWS V14.01,2013-04-06 09:52:00,
2013-04-06 04:54:00,48.1,32.3,29.88,South,170,3.0,13.0,54,0.00,,---,0.00,VWS V14.01,2013-04-06 09:54:00,
2013-04-06 04:55:00,48.2,32.3,29.88,SSE,155,4.0,13.0,54,0.00,,---,0.00,VWS V14.01,2013-04-06 09:55:00,
2013-04-06 04:56:00,48.2,32.3,29.88,SSE,159,4.0,13.0,54,0.00,,---,0.00,VWS V14.01,2013-04-06 09:56:00,
2013-04-06 04:57:00,48.2,32.3,29.88,SSE,157,11.0,13.0,54,0.00,,---,0.00,VWS V14.01,2013-04-06 09:57:00,
2013-04-06 05:00:00,48.2,32.3,29.88,SSE,159,12.0,13.0,54,0.00,,---,0.00,VWS V14.01,2013-04-06 10:00:00,
2013-04-06 05:01:00,48.2,32.3,29.88,SSE,163,7.0,10.0,54,0.00,,---,0.00,VWS V14.01,2013-04-06 10:01:00,
2013-04-06 05:03:00,48.2,32.8,29.88,SE,138,6.0,13.0,55,0.00,,---,0.00,VWS V14.01,2013-04-06 10:03:00,
2013-04-06 05:05:00,48.2,32.8,29.88,SE,140,6.0,13.0,55,0.00,,---,0.00,VWS V14.01,2013-04-06 10:05:00,
2013-04-06 05:06:00,48.2,32.3,29.88,South,169,10.0,14.0,54,0.00,,---,0.00,VWS V14.01,2013-04-06 10:06:00,
2013-04-06 05:08:00,48.2,32.8,29.88,SE,143,11.0,14.0,55,0.00,,---,0.00,VWS V14.01,2013-04-06 10:08:00,
2013-04-06 05:11:00,48.1,32.7,29.88,SSE,156,6.0,14.0,55,0.00,,---,0.00,VWS V14.01,2013-04-06 10:11:00,
2013-04-06 05:12:00,48.1,32.7,29.88,South,176,7.0,14.0,55,0.00,,---,0.00,VWS V14.01,2013-04-06 10:12:00,
2013-04-06 05:13:00,48.1,32.7,29.88,SSE,152,4.0,14.0,55,0.00,,---,0.00,VWS V14.01,2013-04-06 10:13:00,
2013-04-06 05:16:00,48.1,32.7,29.88,SSE,154,1.0,14.0,55,0.00,,---,0.00,VWS V14.01,2013-04-06 10:16:00,
2013-04-06 05:17:00,48.1,33.2,29.88,SSE,162,5.0,14.0,56,0.00,,---,0.00,VWS V14.01,2013-04-06 10:17:00,
2013-04-06 05:18:00,48.2,32.8,29.88,SE,145,6.0,14.0,55,0.00,,---,0.00,VWS V14.01,2013-04-06 10:18:00,
2013-04-06 05:21:00,48.2,32.8,29.88,SSE,156,4.0,14.0,55,0.00,,---,0.00,VWS V14.01,2013-04-06 10:21:00,
2013-04-06 05:22:00,48.3,32.9,29.88,South,172,5.0,14.0,55,0.00,,---,0.00,VWS V14.01,2013-04-06 10:22:00,
2013-04-06 05:23:00,48.3,32.9,29.88,SSE,159,4.0,14.0,55,0.00,,---,0.00,VWS V14.01,2013-04-06 10:23:00,
2013-04-06 05:26:00,48.2,32.8,29.88,SSE,148,10.0,14.0,55,0.00,,---,0.00,VWS V14.01,2013-04-06 10:26:00,
2013-04-06 05:27:00,48.2,32.8,29.88,SSE,150,5.0,14.0,55,0.00,,---,0.00,VWS V14.01,2013-04-06 10:27:00,
2013-04-06 05:28:00,48.2,33.3,29.88,SSE,155,3.0,14.0,56,0.00,,---,0.00,VWS V14.01,2013-04-06 10:28:00,
2013-04-06 05:31:00,48.2,33.3,29.88,ESE,108,3.0,10.0,56,0.00,,---,0.00,VWS V14.01,2013-04-06 10:31:00,
2013-04-06 05:32:00,48.3,32.9,29.88,SE,146,3.0,10.0,55,0.00,,---,0.00,VWS V14.01,2013-04-06 10:32:00,
2013-04-06 05:33:00,48.3,32.9,29.88,SSE,151,4.0,10.0,55,0.00,,---,0.00,VWS V14.01,2013-04-06 10:33:00,
2013-04-06 05:34:00,51.2,34.2,29.87,South,172,5.0,14.0,52,0.00,,---,0.00,VWS V14.01,2013-04-06 10:34:00,
2013-04-06 05:35:00,51.2,34.2,29.87,SE,141,9.0,14.0,52,0.00,,---,0.00,VWS V14.01,2013-04-06 10:35:00,
2013-04-06 05:36:00,51.2,33.7,29.87,SSE,152,12.0,14.0,51,0.00,,---,0.00,VWS V14.01,2013-04-06 10:36:00,
2013-04-06 05:37:00,48.4,33.0,29.88,SE,142,4.0,10.0,55,0.00,,---,0.00,VWS V14.01,2013-04-06 10:37:00,
2013-04-06 05:38:00,48.5,33.1,29.88,South,169,3.0,10.0,55,0.00,,---,0.00,VWS V14.01,2013-04-06 10:38:00,
2013-04-06 05:39:00,48.5,33.1,29.88,SE,145,5.0,10.0,55,0.00,,---,0.00,VWS V14.01,2013-04-06 10:39:00,
2013-04-06 05:42:00,48.6,33.2,29.88,SSE,153,8.0,10.0,55,0.00,,---,0.00,VWS V14.01,2013-04-06 10:42:00,
2013-04-06 05:43:00,48.6,33.6,29.88,SE,140,2.0,10.0,56,0.00,,---,0.00,VWS V14.01,2013-04-06 10:43:00,
2013-04-06 05:45:00,48.7,33.3,29.88,SE,139,2.0,10.0,55,0.00,,---,0.00,VWS V14.01,2013-04-06 10:45:00,
2013-04-06 05:47:00,48.7,33.7,29.88,SSE,150,7.0,10.0,56,0.00,,---,0.00,VWS V14.01,2013-04-06 10:47:00,
2013-04-06 05:48:00,48.7,33.3,29.88,SSE,161,4.0,10.0,55,0.00,,---,0.00,VWS V14.01,2013-04-06 10:48:00,
2013-04-06 05:50:00,48.7,33.3,29.88,SSE,157,0.0,10.0,55,0.00,,---,0.00,VWS V14.01,2013-04-06 10:50:00,
2013-04-06 05:52:00,48.7,33.7,29.88,SSE,159,5.0,10.0,56,0.00,,---,0.00,VWS V14.01,2013-04-06 10:52:00,
2013-04-06 05:53:00,48.7,33.7,29.88,SE,139,5.0,10.0,56,0.00,,---,0.00,VWS V14.01,2013-04-06 10:53:00,
2013-04-06 05:55:00,48.8,33.4,29.88,SSE,150,5.0,10.0,55,0.00,,---,0.00,VWS V14.01,2013-04-06 10:55:00,
2013-04-06 05:57:00,48.8,33.4,29.88,SSE,161,4.0,10.0,55,0.00,,---,0.00,VWS V14.01,2013-04-06 10:57:00,
2013-04-06 05:58:00,48.9,33.5,29.88,SSE,161,3.0,10.0,55,0.00,,---,0.00,VWS V14.01,2013-04-06 10:58:00,
2013-04-06 06:00:00,49.0,33.5,29.88,SE,126,5.0,10.0,55,0.00,,---,0.00,VWS V14.01,2013-04-06 11:00:00,
2013-04-06 06:02:00,49.2,33.7,29.88,SSE,156,3.0,11.0,55,0.00,,---,0.00,VWS V14.01,2013-04-06 11:02:00,
2013-04-06 06:03:00,49.3,33.8,29.88,SSE,160,5.0,11.0,55,0.00,,---,0.00,VWS V14.01,2013-04-06 11:03:00,
2013-04-06 06:07:00,49.8,33.8,29.88,SSE,153,9.0,14.0,54,0.00,,---,0.00,VWS V14.01,2013-04-06 11:07:00,
2013-04-06 06:08:00,49.9,33.9,29.88,SSE,166,6.0,14.0,54,0.00,,---,0.00,VWS V14.01,2013-04-06 11:08:00,
2013-04-06 06:12:00,50.3,33.8,29.88,SSE,152,7.0,14.0,53,0.00,,---,0.00,VWS V14.01,2013-04-06 11:12:00,
2013-04-06 06:13:00,50.3,33.8,29.88,SSE,148,10.0,14.0,53,0.00,,---,0.00,VWS V14.01,2013-04-06 11:13:00,
2013-04-06 06:17:00,50.6,34.1,29.88,SE,146,5.0,14.0,53,0.00,,---,0.00,VWS V14.01,2013-04-06 11:17:00,
2013-04-06 06:18:00,50.6,34.1,29.88,SSE,149,8.0,14.0,53,0.00,,---,0.00,VWS V14.01,2013-04-06 11:18:00,
2013-04-06 06:22:00,51.0,34.0,29.87,SSE,155,11.0,18.0,52,0.00,,---,0.00,VWS V14.01,2013-04-06 11:22:00,
2013-04-06 06:23:00,51.0,34.0,29.88,SSE,159,14.0,18.0,52,0.00,,---,0.00,VWS V14.01,2013-04-06 11:23:00,
2013-04-06 06:27:00,51.1,34.1,29.87,SSE,153,9.0,18.0,52,0.00,,---,0.00,VWS V14.01,2013-04-06 11:27:00,
2013-04-06 06:28:00,51.1,34.1,29.87,SSE,159,12.0,18.0,52,0.00,,---,0.00,VWS V14.01,2013-04-06 11:28:00,
2013-04-06 06:33:00,51.0,34.0,29.87,South,184,6.0,14.0,52,0.00,,---,0.00,VWS V14.01,2013-04-06 11:33:00,
2013-04-06 06:34:00,51.1,34.1,29.87,SSE,148,9.0,14.0,52,0.00,,---,0.00,VWS V14.01,2013-04-06 11:34:00,
2013-04-06 06:37:00,51.2,33.7,29.87,SSE,153,11.0,14.0,51,0.00,,---,0.00,VWS V14.01,2013-04-06 11:37:00,
2013-04-06 06:38:00,51.2,34.2,29.87,SSE,157,5.0,14.0,52,0.00,,---,0.00,VWS V14.01,2013-04-06 11:38:00,
2013-04-06 06:39:00,51.2,34.2,29.87,SSE,157,7.0,14.0,52,0.00,,---,0.00,VWS V14.01,2013-04-06 11:39:00,
2013-04-06 06:42:00,51.2,33.7,29.87,SSE,153,11.0,14.0,51,0.00,,---,0.00,VWS V14.01,2013-04-06 11:42:00,
2013-04-06 06:43:00,51.2,33.7,29.87,SSE,151,12.0,14.0,51,0.00,,---,0.00,VWS V14.01,2013-04-06 11:43:00,
2013-04-06 06:44:00,51.2,34.2,29.87,SSE,153,12.0,14.0,52,0.00,,---,0.00,VWS V14.01,2013-04-06 11:44:00,
2013-04-06 06:47:00,51.3,34.3,29.87,SSE,152,9.0,15.0,52,0.00,,---,0.00,VWS V14.01,2013-04-06 11:47:00,
2013-04-06 06:49:00,51.3,33.8,29.87,SSE,158,5.0,15.0,51,0.00,,---,0.00,VWS V14.01,2013-04-06 11:49:00,
2013-04-06 06:53:00,51.4,33.9,29.87,SSE,161,14.0,17.0,51,0.00,,---,0.00,VWS V14.01,2013-04-06 11:53:00,
2013-04-06 06:54:00,51.6,33.6,29.88,SSE,153,15.0,17.0,50,0.00,,---,0.00,VWS V14.01,2013-04-06 11:54:00,
2013-04-06 06:58:00,51.7,34.2,29.87,South,188,7.0,17.0,51,0.00,,---,0.00,VWS V14.01,2013-04-06 11:58:00,
2013-04-06 07:00:00,51.6,34.1,29.87,South,177,10.0,17.0,51,0.00,,---,0.00,VWS V14.01,2013-04-06 12:00:00,
2013-04-06 07:03:00,51.7,34.2,29.87,South,180,14.0,18.0,51,0.00,,---,0.00,VWS V14.01,2013-04-06 12:03:00,
2013-04-06 07:05:00,51.7,34.2,29.88,ESE,113,6.0,18.0,51,0.00,,---,0.00,VWS V14.01,2013-04-06 12:05:00,
2013-04-06 07:06:00,51.7,34.2,29.87,SSE,152,10.0,18.0,51,0.00,,---,0.00,VWS V14.01,2013-04-06 12:06:00,
2013-04-06 07:08:00,51.8,34.3,29.87,SSE,150,12.0,18.0,51,0.00,,---,0.00,VWS V14.01,2013-04-06 12:08:00,
2013-04-06 07:10:00,51.8,34.3,29.87,SSE,155,11.0,18.0,51,0.00,,---,0.00,VWS V14.01,2013-04-06 12:10:00,
2013-04-06 07:11:00,51.8,34.3,29.87,SSE,153,12.0,18.0,51,0.00,,---,0.00,VWS V14.01,2013-04-06 12:11:00,
2013-04-06 07:13:00,51.9,34.4,29.87,SSE,150,16.0,18.0,51,0.00,,---,0.00,VWS V14.01,2013-04-06 12:13:00,
2013-04-06 07:15:00,51.9,34.4,29.87,South,172,10.0,18.0,51,0.00,,---,0.00,VWS V14.01,2013-04-06 12:15:00,
2013-04-06 07:16:00,52.0,34.5,29.87,SSE,155,16.0,18.0,51,0.00,,---,0.00,VWS V14.01,2013-04-06 12:16:00,
2013-04-06 07:17:00,52.0,34.5,29.87,SSE,165,6.0,18.0,51,0.00,,---,0.00,VWS V14.01,2013-04-06 12:17:00,
2013-04-06 07:18:00,52.1,34.5,29.87,SSE,149,14.0,18.0,51,0.00,,---,0.00,VWS V14.01,2013-04-06 12:18:00,
2013-04-06 07:20:00,52.1,34.0,29.87,SSE,158,5.0,18.0,50,0.00,,---,0.00,VWS V14.01,2013-04-06 12:20:00,
2013-04-06 07:22:00,52.2,34.6,29.87,SSE,156,16.0,18.0,51,0.00,,---,0.00,VWS V14.01,2013-04-06 12:22:00,
2013-04-06 07:23:00,52.2,34.6,29.88,SSE,160,12.0,18.0,51,0.00,,---,0.00,VWS V14.01,2013-04-06 12:23:00,
2013-04-06 07:25:00,52.3,34.7,29.87,SSE,150,12.0,18.0,51,0.00,,---,0.00,VWS V14.01,2013-04-06 12:25:00,
2013-04-06 07:27:00,52.4,34.8,29.87,SSE,164,10.0,18.0,51,0.00,,---,0.00,VWS V14.01,2013-04-06 12:27:00,
2013-04-06 07:28:00,52.4,34.8,29.88,South,169,7.0,18.0,51,0.00,,---,0.00,VWS V14.01,2013-04-06 12:28:00,
2013-04-06 07:30:00,52.3,34.7,29.88,SSE,153,20.0,20.0,51,0.00,,---,0.00,VWS V14.01,2013-04-06 12:30:00,
2013-04-06 07:32:00,52.4,34.8,29.87,North,360,11.0,20.0,51,0.00,,---,0.00,VWS V14.01,2013-04-06 12:32:00,
2013-04-06 07:34:00,52.4,34.3,29.87,SSE,149,13.0,20.0,50,0.00,,---,0.00,VWS V14.01,2013-04-06 12:34:00,
2013-04-06 07:35:00,52.4,34.8,29.87,SSE,155,12.0,20.0,51,0.00,,---,0.00,VWS V14.01,2013-04-06 12:35:00,
2013-04-06 07:37:00,52.4,34.3,29.87,SSE,162,17.0,20.0,50,0.00,,---,0.00,VWS V14.01,2013-04-06 12:37:00,
2013-04-06 07:40:00,52.5,34.4,29.87,SSE,150,9.0,20.0,50,0.00,,---,0.00,VWS V14.01,2013-04-06 12:40:00,
2013-04-06 07:42:00,52.4,34.3,29.87,SSE,152,13.0,21.0,50,0.00,,---,0.00,VWS V14.01,2013-04-06 12:42:00,
2013-04-06 07:43:00,52.4,34.8,29.87,South,181,12.0,21.0,51,0.00,,---,0.00,VWS V14.01,2013-04-06 12:43:00,
2013-04-06 07:45:00,52.4,34.8,29.87,SSE,159,14.0,21.0,51,0.00,,---,0.00,VWS V14.01,2013-04-06 12:45:00,
2013-04-06 07:47:00,52.4,34.8,29.87,SSE,157,9.0,21.0,51,0.00,,---,0.00,VWS V14.01,2013-04-06 12:47:00,
2013-04-06 07:48:00,52.4,34.8,29.87,South,174,11.0,21.0,51,0.00,,---,0.00,VWS V14.01,2013-04-06 12:48:00,
2013-04-06 07:50:00,52.4,34.8,29.87,SSE,150,13.0,21.0,51,0.00,,---,0.00,VWS V14.01,2013-04-06 12:50:00,
2013-04-06 07:52:00,52.5,34.9,29.87,SSE,159,16.0,21.0,51,0.00,,---,0.00,VWS V14.01,2013-04-06 12:52:00,
2013-04-06 07:53:00,52.4,34.8,29.87,SSE,147,14.0,21.0,51,0.00,,---,0.00,VWS V14.01,2013-04-06 12:53:00,
2013-04-06 07:55:00,52.5,34.9,29.87,SSE,157,12.0,21.0,51,0.00,,---,0.00,VWS V14.01,2013-04-06 12:55:00,
2013-04-06 07:58:00,52.4,34.8,29.87,SSE,168,9.0,21.0,51,0.00,,---,0.00,VWS V14.01,2013-04-06 12:58:00,
2013-04-06 07:59:00,52.4,35.3,29.86,SE,143,14.0,21.0,52,0.00,,---,0.00,VWS V14.01,2013-04-06 12:59:00,
2013-04-06 08:00:00,52.4,35.3,29.87,SSE,160,13.0,21.0,52,0.00,,---,0.00,VWS V14.01,2013-04-06 13:00:00,
2013-04-06 08:01:00,52.4,35.3,29.87,SSW,196,12.0,16.0,52,0.00,,---,0.00,VWS V14.01,2013-04-06 13:01:00,
2013-04-06 08:03:00,52.4,35.3,29.87,SSE,166,15.0,20.0,52,0.00,,---,0.00,VWS V14.01,2013-04-06 13:03:00,
2013-04-06 08:04:00,52.5,34.9,29.87,SSE,158,13.0,20.0,51,0.00,,---,0.00,VWS V14.01,2013-04-06 13:04:00,
2013-04-06 08:05:00,52.6,35.5,29.87,SSE,156,14.0,20.0,52,0.00,,---,0.00,VWS V14.01,2013-04-06 13:05:00,
2013-04-06 08:06:00,52.7,35.6,29.87,SSE,165,10.0,20.0,52,0.00,,---,0.00,VWS V14.01,2013-04-06 13:06:00,
2013-04-06 08:08:00,52.7,35.1,29.87,SSE,165,7.0,20.0,51,0.00,,---,0.00,VWS V14.01,2013-04-06 13:08:00,
2013-04-06 08:10:00,52.8,35.7,29.87,SSE,153,11.0,20.0,52,0.00,,---,0.00,VWS V14.01,2013-04-06 13:10:00,
2013-04-06 08:11:00,52.9,35.8,29.87,SSE,148,16.0,20.0,52,0.00,,---,0.00,VWS V14.01,2013-04-06 13:11:00,
2013-04-06 08:13:00,52.9,35.3,29.87,SSE,149,17.0,20.0,51,0.00,,---,0.00,VWS V14.01,2013-04-06 13:13:00,
2013-04-06 08:15:00,52.9,35.8,29.86,South,180,15.0,20.0,52,0.00,,---,0.00,VWS V14.01,2013-04-06 13:15:00,
2013-04-06 08:16:00,52.9,35.8,29.86,South,176,13.0,20.0,52,0.00,,---,0.00,VWS V14.01,2013-04-06 13:16:00,
2013-04-06 08:17:00,53.0,35.4,29.86,SSE,159,16.0,20.0,51,0.00,,---,0.00,VWS V14.01,2013-04-06 13:17:00,
2013-04-06 08:18:00,53.0,35.4,29.86,SSE,165,13.0,20.0,51,0.00,,---,0.00,VWS V14.01,2013-04-06 13:18:00,
2013-04-06 08:22:00,53.2,35.6,29.86,SSE,167,13.0,20.0,51,0.00,,---,0.00,VWS V14.01,2013-04-06 13:22:00,
2013-04-06 08:23:00,53.2,36.5,29.86,SSE,165,9.0,20.0,53,0.00,,---,0.00,VWS V14.01,2013-04-06 13:23:00,
2013-04-06 08:27:00,53.5,36.3,29.86,SSE,168,6.0,20.0,52,0.00,,---,0.00,VWS V14.01,2013-04-06 13:27:00,
2013-04-06 08:28:00,53.7,37.0,29.86,SE,144,10.0,20.0,53,0.00,,---,0.00,VWS V14.01,2013-04-06 13:28:00,
2013-04-06 08:32:00,54.1,36.9,29.86,SSE,155,15.0,16.0,52,0.00,,---,0.00,VWS V14.01,2013-04-06 13:32:00,
2013-04-06 08:33:00,54.2,37.0,29.85,South,175,9.0,17.0,52,0.00,,---,0.00,VWS V14.01,2013-04-06 13:33:00,
2013-04-06 08:37:00,54.5,36.8,29.85,SSE,150,7.0,20.0,51,0.00,,---,0.00,VWS V14.01,2013-04-06 13:37:00,
2013-04-06 08:38:00,54.6,36.8,29.85,SSE,153,17.0,20.0,51,0.00,,---,0.00,VWS V14.01,2013-04-06 13:38:00,
2013-04-06 08:39:00,54.7,36.9,29.85,SSE,167,6.0,20.0,51,0.00,,---,0.00,VWS V14.01,2013-04-06 13:39:00,
2013-04-06 08:42:00,54.9,37.1,29.85,SE,144,9.0,20.0,51,0.00,,---,0.00,VWS V14.01,2013-04-06 13:42:00,
2013-04-06 08:43:00,54.9,37.1,29.84,SSE,152,5.0,20.0,51,0.00,,---,0.00,VWS V14.01,2013-04-06 13:43:00,
2013-04-06 08:44:00,54.9,37.1,29.85,South,177,12.0,20.0,51,0.00,,---,0.00,VWS V14.01,2013-04-06 13:44:00,
2013-04-06 08:47:00,55.1,36.8,29.84,SSE,156,12.0,20.0,50,0.00,,---,0.00,VWS V14.01,2013-04-06 13:47:00,
2013-04-06 08:48:00,55.1,36.8,29.84,SE,139,13.0,20.0,50,0.00,,---,0.00,VWS V14.01,2013-04-06 13:48:00,
2013-04-06 08:49:00,55.3,37.0,29.84,SSE,165,10.0,20.0,50,0.00,,---,0.00,VWS V14.01,2013-04-06 13:49:00,
2013-04-06 08:53:00,55.8,36.9,29.84,SSE,155,14.0,20.0,49,0.00,,---,0.00,VWS V14.01,2013-04-06 13:53:00,
2013-04-06 08:54:00,56.0,37.6,29.84,SSE,157,12.0,20.0,50,0.00,,---,0.00,VWS V14.01,2013-04-06 13:54:00,
2013-04-06 08:58:00,56.6,37.2,29.84,South,182,9.0,20.0,48,0.00,,---,0.00,VWS V14.01,2013-04-06 13:58:00,
2013-04-06 09:01:00,56.8,37.9,29.84,SE,142,7.0,11.0,49,0.00,,---,0.00,VWS V14.01,2013-04-06 14:01:00,
2013-04-06 09:03:00,56.9,38.0,29.84,South,186,10.0,16.0,49,0.00,,---,0.00,VWS V14.01,2013-04-06 14:03:00,
2013-04-06 09:04:00,56.9,38.0,29.84,SSE,167,14.0,19.0,49,0.00,,---,0.00,VWS V14.01,2013-04-06 14:04:00,
2013-04-06 09:06:00,56.8,37.3,29.84,SSE,155,16.0,23.0,48,0.00,,---,0.00,VWS V14.01,2013-04-06 14:06:00,
2013-04-06 09:08:00,56.8,37.3,29.83,SE,130,11.0,24.0,48,0.00,,---,0.00,VWS V14.01,2013-04-06 14:08:00,
2013-04-06 09:09:00,56.8,37.9,29.84,SSE,163,15.0,24.0,49,0.00,,---,0.00,VWS V14.01,2013-04-06 14:09:00,
2013-04-06 09:11:00,56.8,37.3,29.84,South,176,13.0,24.0,48,0.00,,---,0.00,VWS V14.01,2013-04-06 14:11:00,
2013-04-06 09:13:00,56.8,37.9,29.83,SSE,163,6.0,24.0,49,0.00,,---,0.00,VWS V14.01,2013-04-06 14:13:00,
2013-04-06 09:14:00,56.8,37.9,29.84,SSE,167,8.0,24.0,49,0.00,,---,0.00,VWS V14.01,2013-04-06 14:14:00,
2013-04-06 09:17:00,56.8,37.9,29.84,South,169,9.0,24.0,49,0.00,,---,0.00,VWS V14.01,2013-04-06 14:17:00,
2013-04-06 09:18:00,56.9,38.0,29.84,SSW,196,9.0,24.0,49,0.00,,---,0.00,VWS V14.01,2013-04-06 14:18:00,
2013-04-06 09:19:00,56.9,37.4,29.83,SSE,157,11.0,24.0,48,0.00,,---,0.00,VWS V14.01,2013-04-06 14:19:00,
2013-04-06 09:20:00,56.9,37.4,29.83,SSE,165,15.0,24.0,48,0.00,,---,0.00,VWS V14.01,2013-04-06 14:20:00,
2013-04-06 09:22:00,56.9,38.0,29.83,South,179,10.0,24.0,49,0.00,,---,0.00,VWS V14.01,2013-04-06 14:22:00,
2013-04-06 09:23:00,56.9,38.0,29.83,South,191,14.0,24.0,49,0.00,,---,0.00,VWS V14.01,2013-04-06 14:23:00,
2013-04-06 09:25:00,56.9,38.0,29.84,SSW,198,10.0,24.0,49,0.00,,---,0.00,VWS V14.01,2013-04-06 14:25:00,
2013-04-06 09:27:00,56.9,37.4,29.83,SSE,163,13.0,24.0,48,0.00,,---,0.00,VWS V14.01,2013-04-06 14:27:00,
2013-04-06 09:29:00,56.9,38.0,29.83,SSE,163,11.0,24.0,49,0.00,,---,0.00,VWS V14.01,2013-04-06 14:29:00,
2013-04-06 09:30:00,57.0,38.0,29.83,South,184,9.0,24.0,49,0.00,,---,0.00,VWS V14.01,2013-04-06 14:30:00,
2013-04-06 09:32:00,57.0,38.0,29.83,SSE,154,20.0,20.0,49,0.00,,---,0.00,VWS V14.01,2013-04-06 14:32:00,
2013-04-06 09:34:00,57.1,38.1,29.83,South,175,14.0,20.0,49,0.00,,---,0.00,VWS V14.01,2013-04-06 14:34:00,
2013-04-06 09:35:00,57.1,38.1,29.83,SE,142,13.0,20.0,49,0.00,,---,0.00,VWS V14.01,2013-04-06 14:35:00,
2013-04-06 09:37:00,57.3,37.8,29.83,SSE,167,15.0,20.0,48,0.00,,---,0.00,VWS V14.01,2013-04-06 14:37:00,
2013-04-06 09:40:00,57.5,38.5,29.83,SSE,155,13.0,20.0,49,0.00,,---,0.00,VWS V14.01,2013-04-06 14:40:00,
2013-04-06 09:42:00,57.7,38.2,29.83,SSE,165,11.0,25.0,48,0.00,,---,0.00,VWS V14.01,2013-04-06 14:42:00,
2013-04-06 09:45:00,57.8,38.3,29.83,South,169,11.0,25.0,48,0.00,,---,0.00,VWS V14.01,2013-04-06 14:45:00,
2013-04-06 09:48:00,57.9,38.3,29.83,South,178,12.0,25.0,48,0.00,,---,0.00,VWS V14.01,2013-04-06 14:48:00,
2013-04-06 09:50:00,58.0,39.0,29.83,SSW,193,13.0,25.0,49,0.00,,---,0.00,VWS V14.01,2013-04-06 14:50:00,
2013-04-06 09:52:00,58.1,38.5,29.83,SSE,164,6.0,25.0,48,0.00,,---,0.00,VWS V14.01,2013-04-06 14:52:00,
2013-04-06 09:53:00,58.1,38.5,29.83,SSE,164,10.0,25.0,48,0.00,,---,0.00,VWS V14.01,2013-04-06 14:53:00,
2013-04-06 09:55:00,58.2,38.6,29.82,South,182,12.0,25.0,48,0.00,,---,0.00,VWS V14.01,2013-04-06 14:55:00,
2013-04-06 09:56:00,58.3,38.7,29.82,SSW,198,18.0,25.0,48,0.00,,---,0.00,VWS V14.01,2013-04-06 14:56:00,
2013-04-06 09:57:00,58.4,38.8,29.82,South,178,12.0,25.0,48,0.00,,---,0.00,VWS V14.01,2013-04-06 14:57:00,
2013-04-06 09:59:00,58.5,38.9,29.81,SSW,194,12.0,25.0,48,0.00,,---,0.00,VWS V14.01,2013-04-06 14:59:00,
2013-04-06 10:01:00,58.6,38.5,29.81,South,175,16.0,16.0,47,0.00,,---,0.00,VWS V14.01,2013-04-06 15:01:00,
2013-04-06 10:02:00,58.7,38.5,29.81,South,178,13.0,19.0,47,0.00,,---,0.00,VWS V14.01,2013-04-06 15:02:00,
2013-04-06 10:04:00,58.7,38.5,29.81,SSE,163,14.0,19.0,47,0.00,,---,0.00,VWS V14.01,2013-04-06 15:04:00,
2013-04-06 10:06:00,58.8,39.2,29.81,South,188,13.0,19.0,48,0.00,,---,0.00,VWS V14.01,2013-04-06 15:06:00,
2013-04-06 10:07:00,59.0,39.4,29.81,South,175,15.0,19.0,48,0.00,,---,0.00,VWS V14.01,2013-04-06 15:07:00,
2013-04-06 10:09:00,59.3,39.1,29.80,South,183,13.0,19.0,47,0.00,,---,0.00,VWS V14.01,2013-04-06 15:09:00,
2013-04-06 10:11:00,59.8,40.1,29.80,SSE,155,16.0,19.0,48,0.00,,---,0.00,VWS V14.01,2013-04-06 15:11:00,
2013-04-06 10:12:00,60.0,40.3,29.80,South,170,11.0,19.0,48,0.00,,---,0.00,VWS V14.01,2013-04-06 15:12:00,
2013-04-06 10:14:00,60.1,39.8,29.80,SSE,149,16.0,20.0,47,0.00,,---,0.00,VWS V14.01,2013-04-06 15:14:00,
2013-04-06 10:16:00,60.0,40.3,29.80,South,175,16.0,20.0,48,0.00,,---,0.00,VWS V14.01,2013-04-06 15:16:00,
2013-04-06 10:17:00,60.0,40.3,29.80,SE,145,15.0,20.0,48,0.00,,---,0.00,VWS V14.01,2013-04-06 15:17:00,
2013-04-06 10:18:00,60.0,40.3,29.80,SE,144,15.0,20.0,48,0.00,,---,0.00,VWS V14.01,2013-04-06 15:18:00,
2013-04-06 10:19:00,59.8,39.0,29.79,SSE,162,14.0,23.0,46,0.00,,---,0.00,VWS V14.01,2013-04-06 15:19:00,
2013-04-06 10:21:00,59.9,39.6,29.79,SE,146,18.0,23.0,47,0.00,,---,0.00,VWS V14.01,2013-04-06 15:21:00,
2013-04-06 10:23:00,60.2,39.9,29.79,SSW,195,10.0,23.0,47,0.00,,---,0.00,VWS V14.01,2013-04-06 15:23:00,
2013-04-06 10:25:00,61.1,40.7,29.80,SSE,164,19.0,23.0,47,0.00,,---,0.00,VWS V14.01,2013-04-06 15:25:00,
2013-04-06 10:27:00,61.6,41.2,29.80,SSE,153,15.0,23.0,47,0.00,,---,0.00,VWS V14.01,2013-04-06 15:27:00,
2013-04-06 10:28:00,61.7,40.7,29.80,SSE,165,9.0,23.0,46,0.00,,---,0.00,VWS V14.01,2013-04-06 15:28:00,
2013-04-06 10:32:00,62.1,40.0,29.79,SSW,207,19.0,25.0,44,0.00,,---,0.00,VWS V14.01,2013-04-06 15:32:00,
2013-04-06 10:33:00,62.1,40.5,29.80,SSE,166,22.0,25.0,45,0.00,,---,0.00,VWS V14.01,2013-04-06 15:33:00,
2013-04-06 10:37:00,62.3,40.1,29.79,South,182,21.0,25.0,44,0.00,,---,0.00,VWS V14.01,2013-04-06 15:37:00,
2013-04-06 10:38:00,62.3,40.1,29.79,SSW,196,21.0,25.0,44,0.00,,---,0.00,VWS V14.01,2013-04-06 15:38:00,
2013-04-06 10:42:00,62.4,40.2,29.79,South,173,14.0,25.0,44,0.00,,---,0.00,VWS V14.01,2013-04-06 15:42:00,
2013-04-06 10:43:00,62.4,40.2,29.79,South,182,22.0,25.0,44,0.00,,---,0.00,VWS V14.01,2013-04-06 15:43:00,
2013-04-06 10:44:00,62.3,40.1,29.79,SSE,168,12.0,25.0,44,0.00,,---,0.00,VWS V14.01,2013-04-06 15:44:00,
2013-04-06 10:48:00,62.3,40.1,29.79,South,171,12.0,25.0,44,0.00,,---,0.00,VWS V14.01,2013-04-06 15:48:00,
2013-04-06 10:49:00,62.3,40.7,29.79,South,187,6.0,25.0,45,0.00,,---,0.00,VWS V14.01,2013-04-06 15:49:00,
2013-04-06 10:53:00,62.6,41.0,29.79,South,191,13.0,25.0,45,0.00,,---,0.00,VWS V14.01,2013-04-06 15:53:00,
2013-04-06 10:54:00,62.6,40.4,29.79,South,190,13.0,25.0,44,0.00,,---,0.00,VWS V14.01,2013-04-06 15:54:00,
2013-04-06 10:58:00,62.9,40.1,29.79,South,182,11.0,25.0,43,0.00,,---,0.00,VWS V14.01,2013-04-06 15:58:00,
2013-04-06 10:59:00,62.9,40.7,29.78,SSW,199,18.0,25.0,44,0.00,,---,0.00,VWS V14.01,2013-04-06 15:59:00,
2013-04-06 11:00:00,62.9,40.7,29.79,SSE,158,14.0,25.0,44,0.00,,---,0.00,VWS V14.01,2013-04-06 16:00:00,
2013-04-06 11:03:00,62.9,40.7,29.79,SSE,155,13.0,20.0,44,0.00,,---,0.00,VWS V14.01,2013-04-06 16:03:00,
2013-04-06 11:04:00,62.8,40.6,29.79,SSE,167,13.0,20.0,44,0.00,,---,0.00,VWS V14.01,2013-04-06 16:04:00,
2013-04-06 11:06:00,62.8,40.6,29.79,South,191,16.0,25.0,44,0.00,,---,0.00,VWS V14.01,2013-04-06 16:06:00,
2013-04-06 11:08:00,62.8,40.0,29.79,South,175,15.0,25.0,43,0.00,,---,0.00,VWS V14.01,2013-04-06 16:08:00,
2013-04-06 11:09:00,62.8,40.0,29.78,South,176,7.0,25.0,43,0.00,,---,0.00,VWS V14.01,2013-04-06 16:09:00,
2013-04-06 11:11:00,62.9,40.7,29.78,SSE,167,12.0,25.0,44,0.00,,---,0.00,VWS V14.01,2013-04-06 16:11:00,
2013-04-06 11:14:00,63.2,39.1,29.77,South,185,17.0,25.0,41,0.00,,---,0.00,VWS V14.01,2013-04-06 16:14:00,
2013-04-06 11:15:00,63.3,39.8,29.77,SSE,166,17.0,25.0,42,0.00,,---,0.00,VWS V14.01,2013-04-06 16:15:00,
2013-04-06 11:16:00,63.6,40.7,29.77,South,179,24.0,25.0,43,0.00,,---,0.00,VWS V14.01,2013-04-06 16:16:00,
2013-04-06 11:19:00,64.4,40.8,29.76,SSW,195,20.0,27.0,42,0.00,,---,0.00,VWS V14.01,2013-04-06 16:19:00,
2013-04-06 11:20:00,64.5,39.7,29.76,SSW,194,17.0,27.0,40,0.00,,---,0.00,VWS V14.01,2013-04-06 16:20:00,
2013-04-06 11:22:00,64.7,40.5,29.76,South,182,19.0,27.0,41,0.00,,---,0.00,VWS V14.01,2013-04-06 16:22:00,
2013-04-06 11:24:00,65.3,40.4,29.76,SSE,154,17.0,27.0,40,0.00,,---,0.00,VWS V14.01,2013-04-06 16:24:00,
2013-04-06 11:25:00,65.4,39.8,29.76,South,172,16.0,27.0,39,0.00,,---,0.00,VWS V14.01,2013-04-06 16:25:00,
2013-04-06 11:27:00,65.7,40.1,29.76,South,172,11.0,27.0,39,0.00,,---,0.00,VWS V14.01,2013-04-06 16:27:00,
2013-04-06 11:29:00,66.1,40.5,29.75,South,186,16.0,27.0,39,0.00,,---,0.00,VWS V14.01,2013-04-06 16:29:00,
2013-04-06 11:30:00,66.1,40.5,29.75,SSE,168,22.0,27.0,39,0.00,,---,0.00,VWS V14.01,2013-04-06 16:30:00,
2013-04-06 11:32:00,66.2,39.9,29.75,South,176,17.0,21.0,38,0.00,,---,0.00,VWS V14.01,2013-04-06 16:32:00,
2013-04-06 11:34:00,66.5,40.8,29.75,SSW,202,15.0,23.0,39,0.00,,---,0.00,VWS V14.01,2013-04-06 16:34:00,
2013-04-06 11:35:00,66.5,40.8,29.75,South,171,15.0,23.0,39,0.00,,---,0.00,VWS V14.01,2013-04-06 16:35:00,
2013-04-06 11:37:00,66.3,40.6,29.74,South,175,18.0,23.0,39,0.00,,---,0.00,VWS V14.01,2013-04-06 16:37:00,
2013-04-06 11:39:00,66.2,39.9,29.74,SSW,205,24.0,28.0,38,0.00,,---,0.00,VWS V14.01,2013-04-06 16:39:00,
2013-04-06 11:40:00,66.2,40.5,29.74,SSW,196,29.0,29.0,39,0.00,,---,0.00,VWS V14.01,2013-04-06 16:40:00,
2013-04-06 11:42:00,66.0,39.7,29.74,South,173,20.0,29.0,38,0.00,,---,0.00,VWS V14.01,2013-04-06 16:42:00,
2013-04-06 11:45:00,65.9,39.6,29.74,South,177,17.0,29.0,38,0.00,,---,0.00,VWS V14.01,2013-04-06 16:45:00,
2013-04-06 11:47:00,66.0,39.7,29.74,SSW,192,14.0,29.0,38,0.00,,---,0.00,VWS V14.01,2013-04-06 16:47:00,
2013-04-06 11:50:00,65.9,39.6,29.74,SSW,193,21.0,29.0,38,0.00,,---,0.00,VWS V14.01,2013-04-06 16:50:00,
2013-04-06 11:52:00,65.8,39.5,29.74,SSW,192,15.0,30.0,38,0.00,,---,0.00,VWS V14.01,2013-04-06 16:52:00,
2013-04-06 11:55:00,66.0,39.7,29.74,SSE,159,21.0,30.0,38,0.00,,---,0.00,VWS V14.01,2013-04-06 16:55:00,
2013-04-06 11:56:00,66.0,39.7,29.74,South,181,17.0,30.0,38,0.00,,---,0.00,VWS V14.01,2013-04-06 16:56:00,
2013-04-06 11:57:00,65.9,40.3,29.74,SSE,166,23.0,30.0,39,0.00,,---,0.00,VWS V14.01,2013-04-06 16:57:00,
2013-04-06 11:58:00,65.7,40.1,29.74,SE,144,16.0,30.0,39,0.00,,---,0.00,VWS V14.01,2013-04-06 16:58:00,
2013-04-06 12:01:00,65.3,39.1,29.74,SSE,166,18.0,26.0,38,0.00,,---,0.00,VWS V14.01,2013-04-06 17:01:00,
2013-04-06 12:02:00,65.5,39.9,29.74,SSE,167,20.0,26.0,39,0.00,,---,0.00,VWS V14.01,2013-04-06 17:02:00,
2013-04-06 12:03:00,65.7,40.7,29.74,SSE,163,14.0,26.0,40,0.00,,---,0.00,VWS V14.01,2013-04-06 17:03:00,
2013-04-06 12:06:00,66.1,39.8,29.74,SSE,164,12.0,26.0,38,0.00,,---,0.00,VWS V14.01,2013-04-06 17:06:00,
2013-04-06 12:07:00,66.1,40.5,29.74,South,179,14.0,26.0,39,0.00,,---,0.00,VWS V14.01,2013-04-06 17:07:00,
2013-04-06 12:08:00,65.9,40.3,29.74,South,182,10.0,26.0,39,0.00,,---,0.00,VWS V14.01,2013-04-06 17:08:00,
2013-04-06 12:11:00,65.6,40.0,29.73,SE,142,19.0,27.0,39,0.00,,---,0.00,VWS V14.01,2013-04-06 17:11:00,
2013-04-06 12:12:00,65.7,40.1,29.73,South,186,20.0,27.0,39,0.00,,---,0.00,VWS V14.01,2013-04-06 17:12:00,
2013-04-06 12:14:00,65.6,40.0,29.73,SSE,156,27.0,27.0,39,0.00,,---,0.00,VWS V14.01,2013-04-06 17:14:00,
2013-04-06 12:17:00,65.7,40.7,29.73,SSE,166,13.0,27.0,40,0.00,,---,0.00,VWS V14.01,2013-04-06 17:17:00,
2013-04-06 12:19:00,65.9,40.9,29.73,SSW,213,21.0,27.0,40,0.00,,---,0.00,VWS V14.01,2013-04-06 17:19:00,
2013-04-06 12:22:00,66.0,40.4,29.73,SSW,207,15.0,27.0,39,0.00,,---,0.00,VWS V14.01,2013-04-06 17:22:00,
2013-04-06 12:23:00,66.0,40.4,29.72,SSW,211,22.0,27.0,39,0.00,,---,0.00,VWS V14.01,2013-04-06 17:23:00,
2013-04-06 12:24:00,65.9,40.3,29.72,SSE,165,12.0,27.0,39,0.00,,---,0.00,VWS V14.01,2013-04-06 17:24:00,
2013-04-06 12:27:00,65.8,41.5,29.72,South,186,14.0,27.0,41,0.00,,---,0.00,VWS V14.01,2013-04-06 17:27:00,
2013-04-06 12:28:00,65.7,40.7,29.73,SSE,167,16.0,27.0,40,0.00,,---,0.00,VWS V14.01,2013-04-06 17:28:00,
2013-04-06 12:29:00,65.7,41.4,29.72,South,188,13.0,27.0,41,0.00,,---,0.00,VWS V14.01,2013-04-06 17:29:00,
2013-04-06 12:32:00,65.7,41.4,29.72,SSW,196,22.0,22.0,41,0.00,,---,0.00,VWS V14.01,2013-04-06 17:32:00,
2013-04-06 12:33:00,65.6,41.3,29.71,South,186,19.0,23.0,41,0.00,,---,0.00,VWS V14.01,2013-04-06 17:33:00,
2013-04-06 12:34:00,65.4,41.1,29.71,SSE,166,16.0,26.0,41,0.00,,---,0.00,VWS V14.01,2013-04-06 17:34:00,
2013-04-06 12:37:00,65.4,41.1,29.71,SSE,154,21.0,26.0,41,0.00,,---,0.00,VWS V14.01,2013-04-06 17:37:00,
2013-04-06 12:38:00,65.4,41.1,29.71,SSE,161,11.0,26.0,41,0.00,,---,0.00,VWS V14.01,2013-04-06 17:38:00,
2013-04-06 12:39:00,65.5,41.2,29.71,South,174,9.0,26.0,41,0.00,,---,0.00,VWS V14.01,2013-04-06 17:39:00,
2013-04-06 12:42:00,65.5,40.6,29.71,SSW,194,22.0,26.0,40,0.00,,---,0.00,VWS V14.01,2013-04-06 17:42:00,
2013-04-06 12:43:00,65.4,41.1,29.71,South,169,12.0,26.0,41,0.00,,---,0.00,VWS V14.01,2013-04-06 17:43:00,
2013-04-06 12:44:00,65.5,41.8,29.71,SSE,159,12.0,26.0,42,0.00,,---,0.00,VWS V14.01,2013-04-06 17:44:00,
2013-04-06 12:47:00,65.8,42.1,29.71,South,180,5.0,26.0,42,0.00,,---,0.00,VWS V14.01,2013-04-06 17:47:00,
2013-04-06 12:48:00,65.9,42.2,29.71,SSW,208,12.0,26.0,42,0.00,,---,0.00,VWS V14.01,2013-04-06 17:48:00,
2013-04-06 12:50:00,66.1,41.7,29.71,SSE,157,19.0,26.0,41,0.00,,---,0.00,VWS V14.01,2013-04-06 17:50:00,
2013-04-06 12:52:00,66.1,41.7,29.71,South,179,16.0,26.0,41,0.00,,---,0.00,VWS V14.01,2013-04-06 17:52:00,
2013-04-06 12:53:00,66.1,41.7,29.71,South,179,16.0,26.0,41,0.00,,---,0.00,VWS V14.01,2013-04-06 17:53:00,
2013-04-06 12:55:00,66.2,41.8,29.71,South,186,9.0,26.0,41,0.00,,---,0.00,VWS V14.01,2013-04-06 17:55:00,
2013-04-06 12:58:00,66.5,42.1,29.71,South,180,13.0,26.0,41,0.00,,---,0.00,VWS V14.01,2013-04-06 17:58:00,
2013-04-06 13:00:00,66.7,42.3,29.71,South,173,16.0,26.0,41,0.00,,---,0.00,VWS V14.01,2013-04-06 18:00:00,
2013-04-06 13:03:00,66.8,41.7,29.71,South,182,12.0,21.0,40,0.00,,---,0.00,VWS V14.01,2013-04-06 18:03:00,
2013-04-06 13:05:00,66.9,43.1,29.70,South,186,10.0,21.0,42,0.00,,---,0.00,VWS V14.01,2013-04-06 18:05:00,
2013-04-06 13:08:00,67.3,42.2,29.69,SSW,193,18.0,22.0,40,0.00,,---,0.00,VWS V14.01,2013-04-06 18:08:00,
2013-04-06 13:10:00,67.9,41.4,29.69,SSE,166,16.0,22.0,38,0.00,,---,0.00,VWS V14.01,2013-04-06 18:10:00,
2013-04-06 13:13:00,68.6,39.1,29.69,South,182,12.0,33.0,34,0.00,,---,0.00,VWS V14.01,2013-04-06 18:13:00,
2013-04-06 13:14:00,68.7,39.2,29.69,SSE,162,18.0,33.0,34,0.00,,---,0.00,VWS V14.01,2013-04-06 18:14:00,
2013-04-06 13:15:00,69.0,40.2,29.69,South,170,22.0,33.0,35,0.00,,---,0.00,VWS V14.01,2013-04-06 18:15:00,
2013-04-06 13:18:00,69.1,39.6,29.69,South,190,27.0,33.0,34,0.00,,---,0.00,VWS V14.01,2013-04-06 18:18:00,
2013-04-06 13:19:00,68.9,39.4,29.68,SSW,198,16.0,33.0,34,0.00,,---,0.00,VWS V14.01,2013-04-06 18:19:00,
2013-04-06 13:20:00,68.8,39.3,29.68,SSE,147,14.0,33.0,34,0.00,,---,0.00,VWS V14.01,2013-04-06 18:20:00,
2013-04-06 13:24:00,68.5,39.8,29.67,South,182,19.0,33.0,35,0.00,,---,0.00,VWS V14.01,2013-04-06 18:24:00,
2013-04-06 13:25:00,68.6,39.9,29.67,South,190,21.0,33.0,35,0.00,,---,0.00,VWS V14.01,2013-04-06 18:25:00,
2013-04-06 13:26:00,68.7,39.2,29.68,SSW,213,19.0,33.0,34,0.00,,---,0.00,VWS V14.01,2013-04-06 18:26:00,
2013-04-06 13:29:00,69.1,39.6,29.68,SSE,167,16.0,33.0,34,0.00,,---,0.00,VWS V14.01,2013-04-06 18:29:00,
2013-04-06 13:30:00,69.2,40.4,29.68,SSW,207,19.0,33.0,35,0.00,,---,0.00,VWS V14.01,2013-04-06 18:30:00,
2013-04-06 13:31:00,69.8,40.2,29.67,South,174,18.0,27.0,34,0.00,,---,0.00,VWS V14.01,2013-04-06 18:31:00,
2013-04-06 13:34:00,69.9,39.5,29.67,South,173,17.0,27.0,33,0.00,,---,0.00,VWS V14.01,2013-04-06 18:34:00,
2013-04-06 13:35:00,69.9,38.7,29.68,South,180,21.0,27.0,32,0.00,,---,0.00,VWS V14.01,2013-04-06 18:35:00,
2013-04-06 13:36:00,69.2,38.9,29.67,SSW,192,20.0,34.0,33,0.00,,---,0.00,VWS V14.01,2013-04-06 18:36:00,
2013-04-06 13:39:00,68.5,38.3,29.67,SSW,197,28.0,34.0,33,0.00,,---,0.00,VWS V14.01,2013-04-06 18:39:00,
2013-04-06 13:40:00,68.4,38.2,29.67,SSE,168,10.0,34.0,33,0.00,,---,0.00,VWS V14.01,2013-04-06 18:40:00,
2013-04-06 13:42:00,68.4,39.0,29.67,South,184,13.0,34.0,34,0.00,,---,0.00,VWS V14.01,2013-04-06 18:42:00,
2013-04-06 13:44:00,68.8,40.1,29.66,South,186,11.0,34.0,35,0.00,,---,0.00,VWS V14.01,2013-04-06 18:44:00,
2013-04-06 13:45:00,68.9,39.4,29.66,South,179,13.0,34.0,34,0.00,,---,0.00,VWS V14.01,2013-04-06 18:45:00,
2013-04-06 13:47:00,69.2,39.7,29.66,SSE,151,17.0,34.0,34,0.00,,---,0.00,VWS V14.01,2013-04-06 18:47:00,
2013-04-06 13:49:00,69.4,39.8,29.66,South,178,22.0,34.0,34,0.00,,---,0.00,VWS V14.01,2013-04-06 18:49:00,
2013-04-06 13:50:00,69.4,39.8,29.66,SSE,155,16.0,34.0,34,0.00,,---,0.00,VWS V14.01,2013-04-06 18:50:00,
2013-04-06 13:52:00,69.2,40.4,29.66,SSE,165,18.0,34.0,35,0.00,,---,0.00,VWS V14.01,2013-04-06 18:52:00,
2013-04-06 13:53:00,69.0,39.5,29.66,SSW,196,19.0,34.0,34,0.00,,---,0.00,VWS V14.01,2013-04-06 18:53:00,
2013-04-06 13:55:00,68.8,39.3,29.66,SSW,195,19.0,34.0,34,0.00,,---,0.00,VWS V14.01,2013-04-06 18:55:00,
2013-04-06 13:57:00,68.6,39.1,29.66,South,181,20.0,34.0,34,0.00,,---,0.00,VWS V14.01,2013-04-06 18:57:00,
2013-04-06 13:58:00,68.6,39.1,29.66,SW,236,16.0,34.0,34,0.00,,---,0.00,VWS V14.01,2013-04-06 18:58:00,
2013-04-06 14:00:00,68.5,39.8,29.66,SSW,201,19.0,34.0,35,0.00,,---,0.00,VWS V14.01,2013-04-06 19:00:00,
2013-04-06 14:02:00,68.5,39.8,29.65,SW,216,24.0,24.0,35,0.00,,---,0.00,VWS V14.01,2013-04-06 19:02:00,
2013-04-06 14:03:00,68.5,39.0,29.65,South,182,15.0,24.0,34,0.00,,---,0.00,VWS V14.01,2013-04-06 19:03:00,
2013-04-06 14:05:00,68.4,39.0,29.65,South,173,17.0,25.0,34,0.00,,---,0.00,VWS V14.01,2013-04-06 19:05:00,
2013-04-06 14:07:00,68.4,39.0,29.64,SSE,163,15.0,25.0,34,0.00,,---,0.00,VWS V14.01,2013-04-06 19:07:00,
2013-04-06 14:08:00,68.5,39.0,29.64,South,173,18.0,25.0,34,0.00,,---,0.00,VWS V14.01,2013-04-06 19:08:00,
2013-04-06 14:10:00,68.4,39.7,29.64,SSW,198,25.0,25.0,35,0.00,,---,0.00,VWS V14.01,2013-04-06 19:10:00,
2013-04-06 14:11:00,68.4,39.0,29.64,SSW,198,23.0,25.0,34,0.00,,---,0.00,VWS V14.01,2013-04-06 19:11:00,
2013-04-06 14:12:00,68.4,39.0,29.64,SSW,194,24.0,25.0,34,0.00,,---,0.00,VWS V14.01,2013-04-06 19:12:00,
2013-04-06 14:14:00,68.4,39.0,29.64,South,183,18.0,25.0,34,0.00,,---,0.00,VWS V14.01,2013-04-06 19:14:00,
2013-04-06 14:15:00,68.4,39.0,29.63,South,175,19.0,25.0,34,0.00,,---,0.00,VWS V14.01,2013-04-06 19:15:00,
2013-04-06 14:16:00,68.3,38.9,29.64,South,176,17.0,25.0,34,0.00,,---,0.00,VWS V14.01,2013-04-06 19:16:00,
2013-04-06 14:18:00,68.4,39.0,29.64,SSW,200,13.0,25.0,34,0.00,,---,0.00,VWS V14.01,2013-04-06 19:18:00,
2013-04-06 14:19:00,68.4,39.0,29.64,SSW,198,20.0,25.0,34,0.00,,---,0.00,VWS V14.01,2013-04-06 19:19:00,
2013-04-06 14:21:00,68.4,39.0,29.64,South,182,11.0,25.0,34,0.00,,---,0.00,VWS V14.01,2013-04-06 19:21:00,
2013-04-06 14:22:00,68.4,39.7,29.64,South,186,14.0,25.0,35,0.00,,---,0.00,VWS V14.01,2013-04-06 19:22:00,
2013-04-06 14:23:00,68.4,39.7,29.64,SSW,202,16.0,25.0,35,0.00,,---,0.00,VWS V14.01,2013-04-06 19:23:00,
2013-04-06 14:25:00,68.3,39.6,29.64,SSW,192,10.0,25.0,35,0.00,,---,0.00,VWS V14.01,2013-04-06 19:25:00,
2013-04-06 14:27:00,68.4,39.7,29.64,SSW,213,16.0,25.0,35,0.00,,---,0.00,VWS V14.01,2013-04-06 19:27:00,
2013-04-06 14:28:00,68.4,39.7,29.64,South,182,12.0,25.0,35,0.00,,---,0.00,VWS V14.01,2013-04-06 19:28:00,
2013-04-06 14:30:00,68.6,38.4,29.64,SE,131,17.0,25.0,33,0.00,,---,0.00,VWS V14.01,2013-04-06 19:30:00,
2013-04-06 14:32:00,68.8,38.5,29.64,SSE,167,15.0,22.0,33,0.00,,---,0.00,VWS V14.01,2013-04-06 19:32:00,
2013-04-06 14:33:00,69.0,37.9,29.63,SSE,167,17.0,27.0,32,0.00,,---,0.00,VWS V14.01,2013-04-06 19:33:00,
2013-04-06 14:37:00,69.8,37.8,29.63,SSW,206,13.0,27.0,31,0.00,,---,0.00,VWS V14.01,2013-04-06 19:37:00,
2013-04-06 14:38:00,70.0,38.8,29.63,SSW,205,7.0,27.0,32,0.00,,---,0.00,VWS V14.01,2013-04-06 19:38:00,
2013-04-06 14:42:00,70.0,38.0,29.62,South,177,13.0,27.0,31,0.00,,---,0.00,VWS V14.01,2013-04-06 19:42:00,
2013-04-06 14:43:00,70.0,38.0,29.62,SSW,192,7.0,27.0,31,0.00,,---,0.00,VWS V14.01,2013-04-06 19:43:00,
2013-04-06 14:47:00,70.0,37.2,29.62,SSW,194,14.0,27.0,30,0.00,,---,0.00,VWS V14.01,2013-04-06 19:47:00,
2013-04-06 14:48:00,69.9,37.1,29.62,South,174,15.0,27.0,30,0.00,,---,0.00,VWS V14.01,2013-04-06 19:48:00,
2013-04-06 14:52:00,70.0,38.0,29.62,South,169,8.0,29.0,31,0.00,,---,0.00,VWS V14.01,2013-04-06 19:52:00,
2013-04-06 14:53:00,70.1,38.1,29.62,SE,140,11.0,29.0,31,0.00,,---,0.00,VWS V14.01,2013-04-06 19:53:00,
2013-04-06 14:55:00,70.1,36.4,29.62,South,182,18.0,29.0,29,0.00,,---,0.00,VWS V14.01,2013-04-06 19:55:00,
2013-04-06 14:57:00,70.1,37.3,29.62,South,179,17.0,29.0,30,0.00,,---,0.00,VWS V14.01,2013-04-06 19:57:00,
2013-04-06 14:59:00,70.1,36.4,29.62,SSE,165,14.0,29.0,29,0.00,,---,0.00,VWS V14.01,2013-04-06 19:59:00,
2013-04-06 15:00:00,70.2,36.5,29.62,South,183,16.0,29.0,29,0.00,,---,0.00,VWS V14.01,2013-04-06 20:00:00,
2013-04-06 15:02:00,70.8,37.9,29.62,South,171,14.0,22.0,30,0.00,,---,0.00,VWS V14.01,2013-04-06 20:02:00,
2013-04-06 15:05:00,71.2,36.5,29.63,SSW,209,14.0,24.0,28,0.00,,---,0.00,VWS V14.01,2013-04-06 20:05:00,
2013-04-06 15:08:00,71.2,37.3,29.62,South,176,11.0,28.0,29,0.00,,---,0.00,VWS V14.01,2013-04-06 20:08:00,
2013-04-06 15:10:00,70.8,37.0,29.62,South,169,14.0,28.0,29,0.00,,---,0.00,VWS V14.01,2013-04-06 20:10:00,
2013-04-06 15:11:00,70.6,36.8,29.62,SSE,149,19.0,28.0,29,0.00,,---,0.00,VWS V14.01,2013-04-06 20:11:00,
2013-04-06 15:13:00,70.4,37.5,29.62,South,173,19.0,28.0,30,0.00,,---,0.00,VWS V14.01,2013-04-06 20:13:00,
2013-04-06 15:15:00,70.3,36.6,29.62,South,169,16.0,28.0,29,0.00,,---,0.00,VWS V14.01,2013-04-06 20:15:00,
2013-04-06 15:17:00,70.2,37.3,29.62,South,171,14.0,28.0,30,0.00,,---,0.00,VWS V14.01,2013-04-06 20:17:00,
2013-04-06 15:18:00,70.2,37.3,29.62,SSW,196,13.0,28.0,30,0.00,,---,0.00,VWS V14.01,2013-04-06 20:18:00,
2013-04-06 15:20:00,70.2,36.5,29.62,SSE,168,15.0,28.0,29,0.00,,---,0.00,VWS V14.01,2013-04-06 20:20:00,
2013-04-06 15:22:00,70.2,37.3,29.62,South,185,17.0,28.0,30,0.00,,---,0.00,VWS V14.01,2013-04-06 20:22:00,
2013-04-06 15:23:00,70.3,37.4,29.61,SSE,157,13.0,28.0,30,0.00,,---,0.00,VWS V14.01,2013-04-06 20:23:00,
2013-04-06 15:25:00,70.3,36.6,29.61,South,171,13.0,28.0,29,0.00,,---,0.00,VWS V14.01,2013-04-06 20:25:00,
2013-04-06 15:28:00,70.0,36.3,29.61,SSW,199,14.0,28.0,29,0.00,,---,0.00,VWS V14.01,2013-04-06 20:28:00,
2013-04-06 15:29:00,69.9,37.1,29.61,South,183,11.0,28.0,30,0.00,,---,0.00,VWS V14.01,2013-04-06 20:29:00,
2013-04-06 15:30:00,69.8,37.8,29.61,SSE,168,9.0,28.0,31,0.00,,---,0.00,VWS V14.01,2013-04-06 20:30:00,
2013-04-06 15:31:00,69.8,37.8,29.61,South,183,11.0,11.0,31,0.00,,---,0.00,VWS V14.01,2013-04-06 20:31:00,
2013-04-06 15:33:00,69.8,37.8,29.61,South,178,10.0,19.0,31,0.00,,---,0.00,VWS V14.01,2013-04-06 20:33:00,
2013-04-06 15:34:00,69.7,36.9,29.61,South,180,8.0,20.0,30,0.00,,---,0.00,VWS V14.01,2013-04-06 20:34:00,
2013-04-06 15:35:00,69.7,37.7,29.61,South,174,16.0,20.0,31,0.00,,---,0.00,VWS V14.01,2013-04-06 20:35:00,
2013-04-06 15:36:00,69.7,37.7,29.61,South,186,17.0,20.0,31,0.00,,---,0.00,VWS V14.01,2013-04-06 20:36:00,
2013-04-06 15:38:00,69.5,36.7,29.61,South,172,14.0,20.0,30,0.00,,---,0.00,VWS V14.01,2013-04-06 20:38:00,
2013-04-06 15:40:00,69.3,36.6,29.61,SSW,198,15.0,25.0,30,0.00,,---,0.00,VWS V14.01,2013-04-06 20:40:00,
2013-04-06 15:41:00,69.3,36.6,29.61,South,186,22.0,25.0,30,0.00,,---,0.00,VWS V14.01,2013-04-06 20:41:00,
2013-04-06 15:43:00,69.1,37.2,29.60,South,191,14.0,25.0,31,0.00,,---,0.00,VWS V14.01,2013-04-06 20:43:00,
2013-04-06 15:45:00,68.9,37.0,29.60,SSE,167,15.0,25.0,31,0.00,,---,0.00,VWS V14.01,2013-04-06 20:45:00,
2013-04-06 15:46:00,68.9,37.0,29.60,South,185,27.0,27.0,31,0.00,,---,0.00,VWS V14.01,2013-04-06 20:46:00,
2013-04-06 15:47:00,68.8,37.0,29.60,South,173,16.0,27.0,31,0.00,,---,0.00,VWS V14.01,2013-04-06 20:47:00,
2013-04-06 15:48:00,68.7,36.9,29.59,SSE,166,13.0,27.0,31,0.00,,---,0.00,VWS V14.01,2013-04-06 20:48:00,
2013-04-06 15:50:00,68.7,36.9,29.59,SSE,153,15.0,27.0,31,0.00,,---,0.00,VWS V14.01,2013-04-06 20:50:00,
2013-04-06 15:51:00,68.7,37.7,29.59,SSE,161,11.0,27.0,32,0.00,,---,0.00,VWS V14.01,2013-04-06 20:51:00,
2013-04-06 15:52:00,68.7,37.7,29.60,South,190,14.0,27.0,32,0.00,,---,0.00,VWS V14.01,2013-04-06 20:52:00,
2013-04-06 15:53:00,68.6,36.8,29.60,SE,129,21.0,27.0,31,0.00,,---,0.00,VWS V14.01,2013-04-06 20:53:00,
2013-04-06 15:55:00,68.7,37.7,29.59,SSW,208,18.0,27.0,32,0.00,,---,0.00,VWS V14.01,2013-04-06 20:55:00,
2013-04-06 15:56:00,68.7,36.9,29.59,South,187,19.0,27.0,31,0.00,,---,0.00,VWS V14.01,2013-04-06 20:56:00,
2013-04-06 15:57:00,68.8,37.0,29.59,South,180,22.0,27.0,31,0.00,,---,0.00,VWS V14.01,2013-04-06 20:57:00,
2013-04-06 15:58:00,68.8,37.0,29.59,South,190,20.0,27.0,31,0.00,,---,0.00,VWS V14.01,2013-04-06 20:58:00,
2013-04-06 16:00:00,68.9,37.8,29.59,SSW,198,12.0,27.0,32,0.00,,---,0.00,VWS V14.01,2013-04-06 21:00:00,
2013-04-06 16:02:00,68.9,37.0,29.59,South,178,9.0,19.0,31,0.00,,---,0.00,VWS V14.01,2013-04-06 21:02:00,
2013-04-06 16:03:00,68.8,37.8,29.59,SSE,158,14.0,26.0,32,0.00,,---,0.00,VWS V14.01,2013-04-06 21:03:00,
2013-04-06 16:05:00,68.6,36.8,29.58,SSE,168,10.0,26.0,31,0.00,,---,0.00,VWS V14.01,2013-04-06 21:05:00,
2013-04-06 16:07:00,68.5,37.5,29.58,South,190,17.0,26.0,32,0.00,,---,0.00,VWS V14.01,2013-04-06 21:07:00,
2013-04-06 16:08:00,68.5,36.7,29.58,SSW,197,12.0,26.0,31,0.00,,---,0.00,VWS V14.01,2013-04-06 21:08:00,
2013-04-06 16:11:00,68.4,36.6,29.58,SSW,208,17.0,26.0,31,0.00,,---,0.00,VWS V14.01,2013-04-06 21:11:00,
2013-04-06 16:12:00,68.3,37.3,29.59,South,173,13.0,26.0,32,0.00,,---,0.00,VWS V14.01,2013-04-06 21:12:00,
2013-04-06 16:13:00,68.3,37.3,29.60,South,187,14.0,26.0,32,0.00,,---,0.00,VWS V14.01,2013-04-06 21:13:00,
2013-04-06 16:14:00,68.4,37.4,29.60,SSE,167,11.0,26.0,32,0.00,,---,0.00,VWS V14.01,2013-04-06 21:14:00,
2013-04-06 16:16:00,68.5,37.5,29.59,South,186,15.0,26.0,32,0.00,,---,0.00,VWS V14.01,2013-04-06 21:16:00,
2013-04-06 16:17:00,68.6,37.6,29.60,South,169,10.0,26.0,32,0.00,,---,0.00,VWS V14.01,2013-04-06 21:17:00,
2013-04-06 16:18:00,68.6,37.6,29.60,South,176,15.0,26.0,32,0.00,,---,0.00,VWS V14.01,2013-04-06 21:18:00,
2013-04-06 16:19:00,68.8,37.8,29.59,SSW,194,10.0,26.0,32,0.00,,---,0.00,VWS V14.01,2013-04-06 21:19:00,
2013-04-06 16:23:00,69.1,38.0,29.59,South,170,12.0,26.0,32,0.00,,---,0.00,VWS V14.01,2013-04-06 21:23:00,
2013-04-06 16:24:00,69.2,38.1,29.59,South,179,16.0,26.0,32,0.00,,---,0.00,VWS V14.01,2013-04-06 21:24:00,
2013-04-06 16:28:00,69.2,38.1,29.60,SSW,193,8.0,26.0,32,0.00,,---,0.00,VWS V14.01,2013-04-06 21:28:00,
2013-04-06 16:30:00,69.1,38.0,29.59,South,191,17.0,26.0,32,0.00,,---,0.00,VWS V14.01,2013-04-06 21:30:00,
2013-04-06 16:33:00,69.0,37.9,29.59,SSW,194,9.0,15.0,32,0.00,,---,0.00,VWS V14.01,2013-04-06 21:33:00,
2013-04-06 16:35:00,69.0,38.7,29.59,SSE,155,15.0,24.0,33,0.00,,---,0.00,VWS V14.01,2013-04-06 21:35:00,
2013-04-06 16:38:00,69.3,39.8,29.59,SSW,195,13.0,24.0,34,0.00,,---,0.00,VWS V14.01,2013-04-06 21:38:00,
2013-04-06 16:40:00,69.5,39.2,29.59,SSE,159,10.0,24.0,33,0.00,,---,0.00,VWS V14.01,2013-04-06 21:40:00,
2013-04-06 16:43:00,69.4,39.1,29.59,SSE,153,7.0,24.0,33,0.00,,---,0.00,VWS V14.01,2013-04-06 21:43:00,
2013-04-06 16:44:00,69.3,39.0,29.59,South,180,13.0,24.0,33,0.00,,---,0.00,VWS V14.01,2013-04-06 21:44:00,
2013-04-06 16:46:00,69.2,38.9,29.59,SSE,147,11.0,24.0,33,0.00,,---,0.00,VWS V14.01,2013-04-06 21:46:00,
2013-04-06 16:48:00,68.9,40.2,29.59,SSE,161,13.0,24.0,35,0.00,,---,0.00,VWS V14.01,2013-04-06 21:48:00,
2013-04-06 16:49:00,68.8,39.3,29.59,SSE,162,12.0,24.0,34,0.00,,---,0.00,VWS V14.01,2013-04-06 21:49:00,
2013-04-06 16:50:00,68.7,39.2,29.59,South,170,11.0,24.0,34,0.00,,---,0.00,VWS V14.01,2013-04-06 21:50:00,
2013-04-06 16:51:00,68.7,39.2,29.59,SSE,166,10.0,24.0,34,0.00,,---,0.00,VWS V14.01,2013-04-06 21:51:00,
2013-04-06 16:53:00,68.6,39.1,29.60,South,184,18.0,24.0,34,0.00,,---,0.00,VWS V14.01,2013-04-06 21:53:00,
2013-04-06 16:55:00,68.6,39.1,29.59,South,184,16.0,24.0,34,0.00,,---,0.00,VWS V14.01,2013-04-06 21:55:00,
2013-04-06 16:57:00,68.5,39.8,29.60,South,182,6.0,24.0,35,0.00,,---,0.00,VWS V14.01,2013-04-06 21:57:00,
2013-04-06 16:59:00,68.4,39.7,29.60,South,184,10.0,24.0,35,0.00,,---,0.00,VWS V14.01,2013-04-06 21:59:00,
2013-04-06 17:00:00,68.5,39.0,29.60,South,172,11.0,24.0,34,0.00,,---,0.00,VWS V14.01,2013-04-06 22:00:00,
2013-04-06 17:02:00,68.4,39.7,29.60,SSE,163,13.0,17.0,35,0.00,,---,0.00,VWS V14.01,2013-04-06 22:02:00,
2013-04-06 17:05:00,68.5,39.0,29.60,South,182,15.0,21.0,34,0.00,,---,0.00,VWS V14.01,2013-04-06 22:05:00,
2013-04-06 17:07:00,68.4,39.0,29.59,SSW,196,18.0,21.0,34,0.00,,---,0.00,VWS V14.01,2013-04-06 22:07:00,
2013-04-06 17:10:00,68.2,38.8,29.58,SSW,207,21.0,24.0,34,0.00,,---,0.00,VWS V14.01,2013-04-06 22:10:00,
2013-04-06 17:12:00,68.2,39.5,29.58,South,179,15.0,24.0,35,0.00,,---,0.00,VWS V14.01,2013-04-06 22:12:00,
2013-04-06 17:15:00,68.1,39.4,29.59,South,187,13.0,24.0,35,0.00,,---,0.00,VWS V14.01,2013-04-06 22:15:00,
2013-04-06 17:17:00,68.3,38.9,29.59,SSE,158,17.0,24.0,34,0.00,,---,0.00,VWS V14.01,2013-04-06 22:17:00,
2013-04-06 17:21:00,68.2,40.2,29.57,South,183,12.0,24.0,36,0.00,,---,0.00,VWS V14.01,2013-04-06 22:21:00,
2013-04-06 17:22:00,68.1,40.2,29.57,SSE,168,15.0,24.0,36,0.00,,---,0.00,VWS V14.01,2013-04-06 22:22:00,
2013-04-06 17:26:00,67.9,40.0,29.57,South,175,11.0,24.0,36,0.00,,---,0.00,VWS V14.01,2013-04-06 22:26:00,
2013-04-06 17:27:00,67.9,40.0,29.57,South,173,12.0,24.0,36,0.00,,---,0.00,VWS V14.01,2013-04-06 22:27:00,
2013-04-06 17:31:00,67.9,40.0,29.57,SSE,167,17.0,17.0,36,0.00,,---,0.00,VWS V14.01,2013-04-06 22:31:00,
2013-04-06 17:32:00,68.0,39.3,29.57,South,173,13.0,17.0,35,0.00,,---,0.00,VWS V14.01,2013-04-06 22:32:00,
2013-04-06 17:36:00,68.0,38.6,29.57,South,173,7.0,18.0,34,0.00,,---,0.00,VWS V14.01,2013-04-06 22:36:00,
2013-04-06 17:37:00,68.0,39.3,29.57,South,176,12.0,19.0,35,0.00,,---,0.00,VWS V14.01,2013-04-06 22:37:00,
2013-04-06 17:38:00,68.1,38.7,29.57,South,188,12.0,19.0,34,0.00,,---,0.00,VWS V14.01,2013-04-06 22:38:00,
2013-04-06 17:41:00,68.3,38.9,29.57,South,180,9.0,20.0,34,0.00,,---,0.00,VWS V14.01,2013-04-06 22:41:00,
2013-04-06 17:42:00,68.3,38.9,29.57,South,174,9.0,20.0,34,0.00,,---,0.00,VWS V14.01,2013-04-06 22:42:00,
2013-04-06 17:44:00,68.2,38.8,29.57,SSW,193,14.0,20.0,34,0.00,,---,0.00,VWS V14.01,2013-04-06 22:44:00,
2013-04-06 17:46:00,68.2,38.8,29.57,South,171,13.0,20.0,34,0.00,,---,0.00,VWS V14.01,2013-04-06 22:46:00,
2013-04-06 17:47:00,68.2,38.8,29.57,South,181,15.0,20.0,34,0.00,,---,0.00,VWS V14.01,2013-04-06 22:47:00,
2013-04-06 17:49:00,68.3,38.9,29.57,SSW,204,15.0,20.0,34,0.00,,---,0.00,VWS V14.01,2013-04-06 22:49:00,
2013-04-06 17:51:00,68.4,39.0,29.58,South,186,12.0,20.0,34,0.00,,---,0.00,VWS V14.01,2013-04-06 22:51:00,
2013-04-06 17:52:00,68.4,39.0,29.58,South,187,14.0,20.0,34,0.00,,---,0.00,VWS V14.01,2013-04-06 22:52:00,
2013-04-06 17:53:00,68.4,39.0,29.58,SSW,197,15.0,20.0,34,0.00,,---,0.00,VWS V14.01,2013-04-06 22:53:00,
2013-04-06 17:55:00,68.6,38.4,29.58,SSW,209,10.0,20.0,33,0.00,,---,0.00,VWS V14.01,2013-04-06 22:55:00,
2013-04-06 17:57:00,68.6,38.4,29.58,South,184,10.0,20.0,33,0.00,,---,0.00,VWS V14.01,2013-04-06 22:57:00,
2013-04-06 17:58:00,68.7,38.5,29.58,SSE,165,11.0,20.0,33,0.00,,---,0.00,VWS V14.01,2013-04-06 22:58:00,
2013-04-06 18:00:00,68.8,38.5,29.58,South,186,11.0,20.0,33,0.00,,---,0.00,VWS V14.01,2013-04-06 23:00:00,
2013-04-06 18:02:00,68.8,38.5,29.58,SSE,164,11.0,12.0,33,0.00,,---,0.00,VWS V14.01,2013-04-06 23:02:00,
2013-04-06 18:03:00,68.8,38.5,29.58,SSW,200,10.0,12.0,33,0.00,,---,0.00,VWS V14.01,2013-04-06 23:03:00,
2013-04-06 18:05:00,69.0,38.7,29.58,South,179,7.0,17.0,33,0.00,,---,0.00,VWS V14.01,2013-04-06 23:05:00,
2013-04-06 18:07:00,69.0,38.7,29.58,SSE,166,10.0,17.0,33,0.00,,---,0.00,VWS V14.01,2013-04-06 23:07:00,
2013-04-06 18:08:00,69.1,38.8,29.58,SSW,192,10.0,17.0,33,0.00,,---,0.00,VWS V14.01,2013-04-06 23:08:00,
2013-04-06 18:10:00,69.5,38.4,29.58,South,190,19.0,23.0,32,0.00,,---,0.00,VWS V14.01,2013-04-06 23:10:00,
2013-04-06 18:12:00,69.8,38.6,29.58,South,184,11.0,23.0,32,0.00,,---,0.00,VWS V14.01,2013-04-06 23:12:00,
2013-04-06 18:13:00,69.8,38.6,29.58,SSW,194,25.0,25.0,32,0.00,,---,0.00,VWS V14.01,2013-04-06 23:13:00,
2013-04-06 18:15:00,70.1,37.3,29.58,South,169,13.0,25.0,30,0.00,,---,0.00,VWS V14.01,2013-04-06 23:15:00,
2013-04-06 18:17:00,70.0,38.0,29.58,South,184,16.0,25.0,31,0.00,,---,0.00,VWS V14.01,2013-04-06 23:17:00,
2013-04-06 18:18:00,69.9,37.1,29.58,South,175,14.0,25.0,30,0.00,,---,0.00,VWS V14.01,2013-04-06 23:18:00,
2013-04-06 18:19:00,69.8,37.0,29.58,South,182,21.0,27.0,30,0.00,,---,0.00,VWS V14.01,2013-04-06 23:19:00,
2013-04-06 18:20:00,69.8,37.8,29.58,SSW,212,15.0,27.0,31,0.00,,---,0.00,VWS V14.01,2013-04-06 23:20:00,
2013-04-06 18:22:00,69.6,37.7,29.58,South,175,13.0,27.0,31,0.00,,---,0.00,VWS V14.01,2013-04-06 23:22:00,
2013-04-06 18:23:00,69.5,37.6,29.58,SSW,198,16.0,27.0,31,0.00,,---,0.00,VWS V14.01,2013-04-06 23:23:00,
2013-04-06 18:24:00,69.3,38.2,29.58,SSW,195,13.0,27.0,32,0.00,,---,0.00,VWS V14.01,2013-04-06 23:24:00,
2013-04-06 18:25:00,69.2,37.3,29.58,SSE,155,7.0,27.0,31,0.00,,---,0.00,VWS V14.01,2013-04-06 23:25:00,
2013-04-06 18:27:00,69.0,37.9,29.58,South,185,10.0,27.0,32,0.00,,---,0.00,VWS V14.01,2013-04-06 23:27:00,
2013-04-06 18:28:00,69.0,37.9,29.58,South,186,9.0,27.0,32,0.00,,---,0.00,VWS V14.01,2013-04-06 23:28:00,
2013-04-06 18:29:00,68.9,37.8,29.58,South,178,7.0,27.0,32,0.00,,---,0.00,VWS V14.01,2013-04-06 23:29:00,
2013-04-06 18:31:00,68.7,37.7,29.58,SSE,164,13.0,21.0,32,0.00,,---,0.00,VWS V14.01,2013-04-06 23:31:00,
2013-04-06 18:33:00,68.7,36.9,29.58,SSW,197,12.0,21.0,31,0.00,,---,0.00,VWS V14.01,2013-04-06 23:33:00,
2013-04-06 18:35:00,68.6,37.6,29.58,South,188,6.0,21.0,32,0.00,,---,0.00,VWS V14.01,2013-04-06 23:35:00,
2013-04-06 18:37:00,68.4,37.4,29.58,South,190,9.0,21.0,32,0.00,,---,0.00,VWS V14.01,2013-04-06 23:37:00,
2013-04-06 18:38:00,68.4,37.4,29.58,SSW,203,14.0,21.0,32,0.00,,---,0.00,VWS V14.01,2013-04-06 23:38:00,
2013-04-06 18:40:00,68.4,37.4,29.58,South,174,12.0,21.0,32,0.00,,---,0.00,VWS V14.01,2013-04-06 23:40:00,
2013-04-06 18:43:00,68.3,38.1,29.59,South,182,7.0,21.0,33,0.00,,---,0.00,VWS V14.01,2013-04-06 23:43:00,
2013-04-06 18:45:00,68.2,38.0,29.59,South,171,12.0,21.0,33,0.00,,---,0.00,VWS V14.01,2013-04-06 23:45:00,
2013-04-06 18:48:00,68.2,38.8,29.59,SSW,192,6.0,21.0,34,0.00,,---,0.00,VWS V14.01,2013-04-06 23:48:00,
2013-04-06 18:49:00,68.1,38.7,29.59,SSW,195,13.0,21.0,34,0.00,,---,0.00,VWS V14.01,2013-04-06 23:49:00,
2013-04-06 18:50:00,68.1,38.7,29.59,South,175,9.0,21.0,34,0.00,,---,0.00,VWS V14.01,2013-04-06 23:50:00,
2013-04-06 18:53:00,68.0,38.6,29.59,SSW,195,10.0,21.0,34,0.00,,---,0.00,VWS V14.01,2013-04-06 23:53:00,
2013-04-06 18:55:00,67.8,39.2,29.59,South,185,10.0,21.0,35,0.00,,---,0.00,VWS V14.01,2013-04-06 23:55:00,
2013-04-06 18:58:00,67.7,39.1,29.59,South,175,5.0,21.0,35,0.00,,---,0.00,VWS V14.01,2013-04-06 23:58:00,
2013-04-06 19:00:00,67.6,39.0,29.59,SSW,212,15.0,21.0,35,0.00,,---,0.00,VWS V14.01,2013-04-07 00:00:00,
2013-04-06 19:03:00,67.7,39.1,29.59,SSW,203,5.0,18.0,35,0.00,,---,0.00,VWS V14.01,2013-04-07 00:03:00,
2013-04-06 19:05:00,67.7,39.1,29.59,South,186,6.0,18.0,35,0.00,,---,0.00,VWS V14.01,2013-04-07 00:05:00,
2013-04-06 19:06:00,67.7,39.1,29.59,SSW,204,9.0,18.0,35,0.00,,---,0.00,VWS V14.01,2013-04-07 00:06:00,
2013-04-06 19:08:00,67.7,39.1,29.59,SSW,195,13.0,18.0,35,0.00,,---,0.00,VWS V14.01,2013-04-07 00:08:00,
2013-04-06 19:11:00,67.8,38.4,29.59,South,191,10.0,18.0,34,0.00,,---,0.00,VWS V14.01,2013-04-07 00:11:00,
2013-04-06 19:12:00,67.8,39.2,29.59,South,178,12.0,18.0,35,0.00,,---,0.00,VWS V14.01,2013-04-07 00:12:00,
2013-04-06 19:13:00,67.8,38.4,29.59,South,172,10.0,18.0,34,0.00,,---,0.00,VWS V14.01,2013-04-07 00:13:00,
2013-04-06 19:15:00,67.7,39.1,29.59,SSW,200,10.0,18.0,35,0.00,,---,0.00,VWS V14.01,2013-04-07 00:15:00,
2013-04-06 19:17:00,67.7,39.1,29.59,South,190,13.0,18.0,35,0.00,,---,0.00,VWS V14.01,2013-04-07 00:17:00,
2013-04-06 19:19:00,67.6,38.3,29.59,South,171,6.0,18.0,34,0.00,,---,0.00,VWS V14.01,2013-04-07 00:19:00,
2013-04-06 19:20:00,67.6,38.3,29.59,South,187,7.0,18.0,34,0.00,,---,0.00,VWS V14.01,2013-04-07 00:20:00,
2013-04-06 19:22:00,67.6,38.3,29.59,SSW,197,14.0,18.0,34,0.00,,---,0.00,VWS V14.01,2013-04-07 00:22:00,
2013-04-06 19:23:00,67.6,38.3,29.59,South,188,9.0,18.0,34,0.00,,---,0.00,VWS V14.01,2013-04-07 00:23:00,
2013-04-06 19:24:00,67.6,39.0,29.59,South,171,10.0,18.0,35,0.00,,---,0.00,VWS V14.01,2013-04-07 00:24:00,
2013-04-06 19:26:00,67.5,38.9,29.59,SSE,164,6.0,18.0,35,0.00,,---,0.00,VWS V14.01,2013-04-07 00:26:00,
2013-04-06 19:27:00,67.4,38.8,29.59,South,178,6.0,18.0,35,0.00,,---,0.00,VWS V14.01,2013-04-07 00:27:00,
2013-04-06 19:28:00,67.3,38.7,29.59,South,181,6.0,18.0,35,0.00,,---,0.00,VWS V14.01,2013-04-07 00:28:00,
2013-04-06 19:30:00,67.2,38.7,29.60,South,174,4.0,18.0,35,0.00,,---,0.00,VWS V14.01,2013-04-07 00:30:00,
2013-04-06 19:31:00,67.2,39.4,29.59,SSE,165,7.0,7.0,36,0.00,,---,0.00,VWS V14.01,2013-04-07 00:31:00,
2013-04-06 19:33:00,67.0,39.2,29.59,South,180,8.0,13.0,36,0.00,,---,0.00,VWS V14.01,2013-04-07 00:33:00,
2013-04-06 19:35:00,67.0,39.2,29.59,South,171,7.0,13.0,36,0.00,,---,0.00,VWS V14.01,2013-04-07 00:35:00,
2013-04-06 19:36:00,67.0,39.2,29.59,SSW,197,5.0,13.0,36,0.00,,---,0.00,VWS V14.01,2013-04-07 00:36:00,
2013-04-06 19:38:00,66.8,39.0,29.60,SSE,150,11.0,13.0,36,0.00,,---,0.00,VWS V14.01,2013-04-07 00:38:00,
2013-04-06 19:39:00,66.8,39.0,29.59,SSW,193,7.0,13.0,36,0.00,,---,0.00,VWS V14.01,2013-04-07 00:39:00,
2013-04-06 19:40:00,66.9,39.1,29.60,South,184,5.0,13.0,36,0.00,,---,0.00,VWS V14.01,2013-04-07 00:40:00,
2013-04-06 19:41:00,66.9,39.1,29.60,South,172,4.0,13.0,36,0.00,,---,0.00,VWS V14.01,2013-04-07 00:41:00,
2013-04-06 19:43:00,66.7,38.9,29.60,South,182,7.0,13.0,36,0.00,,---,0.00,VWS V14.01,2013-04-07 00:43:00,
2013-04-06 19:44:00,66.7,38.9,29.60,South,178,7.0,13.0,36,0.00,,---,0.00,VWS V14.01,2013-04-07 00:44:00,
2013-04-06 19:45:00,66.6,39.5,29.60,South,185,5.0,13.0,37,0.00,,---,0.00,VWS V14.01,2013-04-07 00:45:00,
2013-04-06 19:46:00,66.6,39.5,29.60,SSW,204,9.0,13.0,37,0.00,,---,0.00,VWS V14.01,2013-04-07 00:46:00,
2013-04-06 19:49:00,66.5,39.5,29.60,SSW,195,7.0,13.0,37,0.00,,---,0.00,VWS V14.01,2013-04-07 00:49:00,
2013-04-06 19:51:00,66.5,39.5,29.59,SSW,192,12.0,13.0,37,0.00,,---,0.00,VWS V14.01,2013-04-07 00:51:00,
2013-04-06 19:54:00,66.5,39.5,29.59,South,180,7.0,13.0,37,0.00,,---,0.00,VWS V14.01,2013-04-07 00:54:00,
2013-04-06 19:56:00,66.3,39.3,29.60,SSE,165,6.0,13.0,37,0.00,,---,0.00,VWS V14.01,2013-04-07 00:56:00,
2013-04-06 20:00:00,66.3,39.3,29.59,South,178,6.0,15.0,37,0.00,,---,0.00,VWS V14.01,2013-04-07 01:00:00,
2013-04-06 20:02:00,66.2,39.2,29.60,SSW,197,10.0,12.0,37,0.00,,---,0.00,VWS V14.01,2013-04-07 01:02:00,
2013-04-06 20:05:00,66.2,39.2,29.60,SSW,201,10.0,13.0,37,0.00,,---,0.00,VWS V14.01,2013-04-07 01:05:00,
2013-04-06 20:07:00,66.2,39.2,29.59,SSW,192,10.0,19.0,37,0.00,,---,0.00,VWS V14.01,2013-04-07 01:07:00,
2013-04-06 20:10:00,66.1,39.1,29.59,South,172,9.0,19.0,37,0.00,,---,0.00,VWS V14.01,2013-04-07 01:10:00,
2013-04-06 20:12:00,66.1,39.1,29.59,SSW,203,6.0,19.0,37,0.00,,---,0.00,VWS V14.01,2013-04-07 01:12:00,
2013-04-06 20:15:00,66.1,39.1,29.59,South,188,6.0,19.0,37,0.00,,---,0.00,VWS V14.01,2013-04-07 01:15:00,
2013-04-06 20:17:00,66.1,39.1,29.59,South,188,5.0,19.0,37,0.00,,---,0.00,VWS V14.01,2013-04-07 01:17:00,
2013-04-06 20:18:00,66.0,39.0,29.59,South,180,11.0,19.0,37,0.00,,---,0.00,VWS V14.01,2013-04-07 01:18:00,
2013-04-06 20:20:00,66.0,39.0,29.59,SSE,168,7.0,19.0,37,0.00,,---,0.00,VWS V14.01,2013-04-07 01:20:00,
2013-04-06 20:22:00,65.9,38.9,29.59,SSE,165,7.0,19.0,37,0.00,,---,0.00,VWS V14.01,2013-04-07 01:22:00,
2013-04-06 20:23:00,65.8,38.8,29.59,SSE,167,7.0,19.0,37,0.00,,---,0.00,VWS V14.01,2013-04-07 01:23:00,
2013-04-06 20:25:00,65.6,38.7,29.59,South,170,6.0,19.0,37,0.00,,---,0.00,VWS V14.01,2013-04-07 01:25:00,
2013-04-06 20:27:00,65.5,38.6,29.59,South,173,9.0,19.0,37,0.00,,---,0.00,VWS V14.01,2013-04-07 01:27:00,
2013-04-06 20:28:00,65.5,38.6,29.59,SSE,168,10.0,19.0,37,0.00,,---,0.00,VWS V14.01,2013-04-07 01:28:00,
2013-04-06 20:31:00,65.4,38.5,29.59,South,190,6.0,7.0,37,0.00,,---,0.00,VWS V14.01,2013-04-07 01:31:00,
2013-04-06 20:33:00,65.1,38.9,29.59,SSE,159,6.0,11.0,38,0.00,,---,0.00,VWS V14.01,2013-04-07 01:33:00,
2013-04-06 20:36:00,65.0,38.8,29.59,South,188,5.0,13.0,38,0.00,,---,0.00,VWS V14.01,2013-04-07 01:36:00,
2013-04-06 20:38:00,65.0,38.8,29.59,South,184,9.0,16.0,38,0.00,,---,0.00,VWS V14.01,2013-04-07 01:38:00,
2013-04-06 20:40:00,64.9,38.7,29.59,SSE,163,7.0,16.0,38,0.00,,---,0.00,VWS V14.01,2013-04-07 01:40:00,
2013-04-06 20:41:00,64.9,38.7,29.59,SSE,161,12.0,16.0,38,0.00,,---,0.00,VWS V14.01,2013-04-07 01:41:00,
2013-04-06 20:43:00,64.7,39.2,29.59,South,170,9.0,16.0,39,0.00,,---,0.00,VWS V14.01,2013-04-07 01:43:00,
2013-04-06 20:44:00,64.7,39.2,29.59,South,171,11.0,16.0,39,0.00,,---,0.00,VWS V14.01,2013-04-07 01:44:00,
2013-04-06 20:45:00,64.5,39.0,29.59,SSE,161,6.0,16.0,39,0.00,,---,0.00,VWS V14.01,2013-04-07 01:45:00,
2013-04-06 20:46:00,64.4,38.9,29.59,South,171,10.0,19.0,39,0.00,,---,0.00,VWS V14.01,2013-04-07 01:46:00,
2013-04-06 20:49:00,64.2,39.4,29.59,South,184,11.0,19.0,40,0.00,,---,0.00,VWS V14.01,2013-04-07 01:49:00,
2013-04-06 20:51:00,64.1,39.3,29.59,South,174,10.0,19.0,40,0.00,,---,0.00,VWS V14.01,2013-04-07 01:51:00,
2013-04-06 20:52:00,64.1,39.3,29.59,South,184,8.0,19.0,40,0.00,,---,0.00,VWS V14.01,2013-04-07 01:52:00,
2013-04-06 20:54:00,64.1,39.3,29.59,SW,214,12.0,19.0,40,0.00,,---,0.00,VWS V14.01,2013-04-07 01:54:00,
2013-04-06 20:56:00,63.9,39.8,29.59,South,169,7.0,19.0,41,0.00,,---,0.00,VWS V14.01,2013-04-07 01:56:00,
2013-04-06 20:57:00,63.9,39.8,29.59,South,186,9.0,19.0,41,0.00,,---,0.00,VWS V14.01,2013-04-07 01:57:00,
2013-04-06 20:59:00,63.9,39.8,29.58,SSE,159,10.0,19.0,41,0.00,,---,0.00,VWS V14.01,2013-04-07 01:59:00,
2013-04-06 21:02:00,63.8,39.7,29.58,SSE,168,6.0,13.0,41,0.00,,---,0.00,VWS V14.01,2013-04-07 02:02:00,
2013-04-06 21:04:00,63.6,39.5,29.58,South,169,6.0,16.0,41,0.00,,---,0.00,VWS V14.01,2013-04-07 02:04:00,
2013-04-06 21:05:00,63.6,39.5,29.58,South,169,6.0,16.0,41,0.00,,---,0.00,VWS V14.01,2013-04-07 02:05:00,
2013-04-06 21:07:00,63.5,40.0,29.58,South,181,16.0,16.0,42,0.00,,---,0.00,VWS V14.01,2013-04-07 02:07:00,
2013-04-06 21:10:00,63.7,39.6,29.58,South,188,9.0,16.0,41,0.00,,---,0.00,VWS V14.01,2013-04-07 02:10:00,
2013-04-06 21:12:00,63.8,40.3,29.59,South,190,12.0,16.0,42,0.00,,---,0.00,VWS V14.01,2013-04-07 02:12:00,
2013-04-06 21:15:00,63.8,40.3,29.59,South,178,7.0,16.0,42,0.00,,---,0.00,VWS V14.01,2013-04-07 02:15:00,
2013-04-06 21:17:00,63.8,40.3,29.59,South,184,10.0,16.0,42,0.00,,---,0.00,VWS V14.01,2013-04-07 02:17:00,
2013-04-06 21:18:00,63.8,40.3,29.59,SSW,204,9.0,16.0,42,0.00,,---,0.00,VWS V14.01,2013-04-07 02:18:00,
2013-04-06 21:20:00,63.8,40.3,29.59,SSW,203,11.0,16.0,42,0.00,,---,0.00,VWS V14.01,2013-04-07 02:20:00,
2013-04-06 21:22:00,63.7,40.2,29.59,South,187,9.0,16.0,42,0.00,,---,0.00,VWS V14.01,2013-04-07 02:22:00,
2013-04-06 21:24:00,63.9,40.4,29.59,South,177,10.0,16.0,42,0.00,,---,0.00,VWS V14.01,2013-04-07 02:24:00,
2013-04-06 21:25:00,64.0,40.5,29.59,South,184,15.0,16.0,42,0.00,,---,0.00,VWS V14.01,2013-04-07 02:25:00,
2013-04-06 21:26:00,64.0,40.5,29.59,South,184,15.0,16.0,42,0.00,,---,0.00,VWS V14.01,2013-04-07 02:26:00,
2013-04-06 21:27:00,64.0,40.5,29.59,SSE,166,5.0,16.0,42,0.00,,---,0.00,VWS V14.01,2013-04-07 02:27:00,
2013-04-06 21:29:00,64.1,41.2,29.59,SW,215,12.0,16.0,43,0.00,,---,0.00,VWS V14.01,2013-04-07 02:29:00,
2013-04-06 21:31:00,64.0,41.1,29.58,SSW,202,13.0,13.0,43,0.00,,---,0.00,VWS V14.01,2013-04-07 02:31:00,
2013-04-06 21:33:00,64.0,40.5,29.59,SSE,163,11.0,16.0,42,0.00,,---,0.00,VWS V14.01,2013-04-07 02:33:00,
2013-04-06 21:34:00,64.0,40.5,29.58,SSE,167,15.0,16.0,42,0.00,,---,0.00,VWS V14.01,2013-04-07 02:34:00,
2013-04-06 21:36:00,64.1,40.6,29.59,South,180,9.0,16.0,42,0.00,,---,0.00,VWS V14.01,2013-04-07 02:36:00,
2013-04-06 21:37:00,64.1,41.2,29.59,SSW,192,10.0,16.0,43,0.00,,---,0.00,VWS V14.01,2013-04-07 02:37:00,
2013-04-06 21:38:00,64.1,41.2,29.59,South,171,7.0,16.0,43,0.00,,---,0.00,VWS V14.01,2013-04-07 02:38:00,
2013-04-06 21:39:00,64.1,41.2,29.59,SSE,165,6.0,16.0,43,0.00,,---,0.00,VWS V14.01,2013-04-07 02:39:00,
2013-04-06 21:42:00,64.1,41.2,29.59,SSW,192,11.0,19.0,43,0.00,,---,0.00,VWS V14.01,2013-04-07 02:42:00,
2013-04-06 21:43:00,64.1,41.2,29.59,South,188,10.0,19.0,43,0.00,,---,0.00,VWS V14.01,2013-04-07 02:43:00,
2013-04-06 21:44:00,64.1,41.2,29.59,SSE,161,14.0,19.0,43,0.00,,---,0.00,VWS V14.01,2013-04-07 02:44:00,
2013-04-06 21:47:00,64.1,41.2,29.59,South,180,11.0,20.0,43,0.00,,---,0.00,VWS V14.01,2013-04-07 02:47:00,
2013-04-06 21:48:00,64.1,41.2,29.59,South,181,9.0,20.0,43,0.00,,---,0.00,VWS V14.01,2013-04-07 02:48:00,
2013-04-06 21:49:00,64.2,41.3,29.59,SSE,168,13.0,20.0,43,0.00,,---,0.00,VWS V14.01,2013-04-07 02:49:00,
2013-04-06 21:52:00,64.1,41.2,29.59,SSW,195,11.0,20.0,43,0.00,,---,0.00,VWS V14.01,2013-04-07 02:52:00,
2013-04-06 21:54:00,64.1,41.2,29.59,SSW,201,10.0,20.0,43,0.00,,---,0.00,VWS V14.01,2013-04-07 02:54:00,
2013-04-06 21:57:00,64.2,41.3,29.59,SSW,194,12.0,20.0,43,0.00,,---,0.00,VWS V14.01,2013-04-07 02:57:00,
2013-04-06 21:59:00,64.1,41.2,29.59,South,185,22.0,22.0,43,0.00,,---,0.00,VWS V14.01,2013-04-07 02:59:00,
2013-04-06 22:00:00,64.1,41.2,29.59,South,185,13.0,22.0,43,0.00,,---,0.00,VWS V14.01,2013-04-07 03:00:00,
2013-04-06 22:01:00,58.8,46.2,29.64,WSW,244,4.0,5.0,63,0.00,,---,0.00,VWS V14.01,2013-04-07 03:01:00,
2013-04-06 22:02:00,64.2,41.3,29.59,South,186,16.0,17.0,43,0.00,,---,0.00,VWS V14.01,2013-04-07 03:02:00,
2013-04-06 22:03:00,58.5,46.4,29.64,WSW,237,4.0,5.0,64,0.00,,---,0.00,VWS V14.01,2013-04-07 03:03:00,
2013-04-06 22:04:00,58.4,46.3,29.64,WSW,248,3.0,5.0,64,0.00,,---,0.00,VWS V14.01,2013-04-07 03:04:00,
2013-04-06 22:05:00,64.1,41.2,29.60,South,174,15.0,21.0,43,0.00,,---,0.00,VWS V14.01,2013-04-07 03:05:00,
2013-04-06 22:07:00,64.2,41.8,29.60,SSW,196,14.0,21.0,44,0.00,,---,0.00,VWS V14.01,2013-04-07 03:07:00,
2013-04-06 22:08:00,64.2,41.8,29.60,SSW,205,10.0,21.0,44,0.00,,---,0.00,VWS V14.01,2013-04-07 03:08:00,
2013-04-06 22:10:00,64.1,41.8,29.61,SSW,200,12.0,21.0,44,0.00,,---,0.00,VWS V14.01,2013-04-07 03:10:00,
2013-04-06 22:12:00,63.9,42.2,29.61,SSW,207,10.0,21.0,45,0.00,,---,0.00,VWS V14.01,2013-04-07 03:12:00,
2013-04-06 22:13:00,63.9,42.2,29.61,SW,220,9.0,21.0,45,0.00,,---,0.00,VWS V14.01,2013-04-07 03:13:00,
2013-04-06 22:15:00,63.8,43.2,29.61,SW,221,6.0,21.0,47,0.00,,---,0.00,VWS V14.01,2013-04-07 03:15:00,
2013-04-06 22:17:00,63.4,43.9,29.61,South,182,11.0,21.0,49,0.00,,---,0.00,VWS V14.01,2013-04-07 03:17:00,
2013-04-06 22:18:00,63.4,43.9,29.61,SSW,194,16.0,21.0,49,0.00,,---,0.00,VWS V14.01,2013-04-07 03:18:00,
2013-04-06 22:20:00,63.0,43.6,29.61,South,184,10.0,21.0,49,0.00,,---,0.00,VWS V14.01,2013-04-07 03:20:00,
2013-04-06 22:22:00,62.7,44.8,29.61,South,178,12.0,21.0,52,0.00,,---,0.00,VWS V14.01,2013-04-07 03:22:00,
2013-04-06 22:23:00,62.7,44.8,29.61,SSW,194,18.0,21.0,52,0.00,,---,0.00,VWS V14.01,2013-04-07 03:23:00,
2013-04-06 22:25:00,62.5,45.7,29.61,SSW,200,17.0,21.0,54,0.00,,---,0.00,VWS V14.01,2013-04-07 03:25:00,
2013-04-06 22:26:00,62.5,45.7,29.61,SSW,202,14.0,21.0,54,0.00,,---,0.00,VWS V14.01,2013-04-07 03:26:00,
2013-04-06 22:28:00,62.4,46.0,29.61,SSW,202,7.0,21.0,55,0.00,,---,0.00,VWS V14.01,2013-04-07 03:28:00,
2013-04-06 22:30:00,62.4,46.5,29.61,SSW,200,13.0,21.0,56,0.00,,---,0.00,VWS V14.01,2013-04-07 03:30:00,
2013-04-06 22:31:00,62.4,46.5,29.61,SSW,209,5.0,9.0,56,0.00,,---,0.00,VWS V14.01,2013-04-07 03:31:00,
2013-04-06 22:33:00,62.3,46.4,29.62,SSW,207,10.0,14.0,56,0.00,,---,0.00,VWS V14.01,2013-04-07 03:33:00,
2013-04-06 22:35:00,62.2,46.3,29.62,SSW,210,7.0,14.0,56,0.00,,---,0.00,VWS V14.01,2013-04-07 03:35:00,
2013-04-06 22:36:00,62.2,46.3,29.62,SSW,210,6.0,14.0,56,0.00,,---,0.00,VWS V14.01,2013-04-07 03:36:00,
2013-04-06 22:38:00,62.1,46.2,29.62,SSW,200,5.0,15.0,56,0.00,,---,0.00,VWS V14.01,2013-04-07 03:38:00,
2013-04-06 22:41:00,61.8,46.4,29.62,SSW,200,7.0,15.0,57,0.00,,---,0.00,VWS V14.01,2013-04-07 03:41:00,
2013-04-06 22:43:00,61.6,46.7,29.62,SW,214,7.0,15.0,58,0.00,,---,0.00,VWS V14.01,2013-04-07 03:43:00,
2013-04-06 22:46:00,61.2,46.3,29.62,SW,235,4.0,15.0,58,0.00,,---,0.00,VWS V14.01,2013-04-07 03:46:00,
2013-04-06 22:48:00,60.8,46.4,29.63,West,264,9.0,15.0,59,0.00,,---,0.00,VWS V14.01,2013-04-07 03:48:00,
2013-04-06 22:49:00,60.5,46.1,29.63,WSW,253,6.0,15.0,59,0.00,,---,0.00,VWS V14.01,2013-04-07 03:49:00,
2013-04-06 22:51:00,59.9,46.0,29.63,WSW,251,5.0,15.0,60,0.00,,---,0.00,VWS V14.01,2013-04-07 03:51:00,
2013-04-06 22:53:00,59.1,46.1,29.63,SW,221,3.0,15.0,62,0.00,,---,0.00,VWS V14.01,2013-04-07 03:53:00,
2013-04-06 22:54:00,58.9,46.3,29.63,SW,215,4.0,15.0,63,0.00,,---,0.00,VWS V14.01,2013-04-07 03:54:00,
2013-04-06 22:56:00,58.7,46.6,29.63,SSW,203,5.0,15.0,64,0.00,,---,0.00,VWS V14.01,2013-04-07 03:56:00,
2013-04-06 22:57:00,58.7,46.6,29.63,SSW,198,5.0,15.0,64,0.00,,---,0.00,VWS V14.01,2013-04-07 03:57:00,
2013-04-06 22:59:00,58.8,46.7,29.63,WSW,250,4.0,15.0,64,0.00,,---,0.00,VWS V14.01,2013-04-07 03:59:00,
2013-04-06 23:00:00,58.8,46.7,29.63,WSW,246,3.0,15.0,64,0.00,,---,0.00,VWS V14.01,2013-04-07 04:00:00,
2013-04-06 23:05:00,58.3,46.2,29.64,WSW,239,3.0,5.0,64,0.00,,---,0.00,VWS V14.01,2013-04-07 04:05:00,
2013-04-06 23:07:00,57.9,45.8,29.64,SSW,213,5.0,5.0,64,0.00,,---,0.00,VWS V14.01,2013-04-07 04:07:00,
2013-04-06 23:10:00,57.8,46.1,29.64,SW,223,3.0,5.0,65,0.00,,---,0.00,VWS V14.01,2013-04-07 04:10:00,
2013-04-06 23:12:00,57.9,46.2,29.64,WSW,239,3.0,6.0,65,0.00,,---,0.00,VWS V14.01,2013-04-07 04:12:00,
2013-04-06 23:15:00,57.6,46.3,29.64,WSW,238,4.0,6.0,66,0.00,,---,0.00,VWS V14.01,2013-04-07 04:15:00,
2013-04-06 23:17:00,57.4,46.2,29.64,SW,236,2.0,6.0,66,0.00,,---,0.00,VWS V14.01,2013-04-07 04:17:00,
2013-04-06 23:20:00,56.9,46.1,29.64,SW,236,4.0,6.0,67,0.00,,---,0.00,VWS V14.01,2013-04-07 04:20:00,
2013-04-06 23:22:00,56.6,45.8,29.64,SW,223,4.0,6.0,67,0.00,,---,0.00,VWS V14.01,2013-04-07 04:22:00,
2013-04-06 23:25:00,56.4,46.0,29.64,SSW,199,4.0,6.0,68,0.00,,---,0.00,VWS V14.01,2013-04-07 04:25:00,
2013-04-06 23:27:00,56.5,46.1,29.64,WSW,239,4.0,6.0,68,0.00,,---,0.00,VWS V14.01,2013-04-07 04:27:00,
2013-04-06 23:30:00,57.0,46.2,29.64,SW,219,3.0,9.0,67,0.00,,---,0.00,VWS V14.01,2013-04-07 04:30:00,
2013-04-06 23:32:00,57.3,46.5,29.65,SW,225,3.0,6.0,67,0.00,,---,0.00,VWS V14.01,2013-04-07 04:32:00,
2013-04-06 23:33:00,57.3,46.5,29.65,SW,223,4.0,6.0,67,0.00,,---,0.00,VWS V14.01,2013-04-07 04:33:00,
2013-04-06 23:35:00,57.5,46.6,29.65,SW,225,3.0,6.0,67,0.00,,---,0.00,VWS V14.01,2013-04-07 04:35:00,
2013-04-06 23:37:00,57.6,46.3,29.65,SSW,209,4.0,6.0,66,0.00,,---,0.00,VWS V14.01,2013-04-07 04:37:00,
2013-04-06 23:38:00,57.6,46.3,29.65,SW,236,2.0,6.0,66,0.00,,---,0.00,VWS V14.01,2013-04-07 04:38:00,
2013-04-06 23:41:00,57.6,46.3,29.65,WSW,240,4.0,6.0,66,0.00,,---,0.00,VWS V14.01,2013-04-07 04:41:00,
2013-04-06 23:43:00,57.4,46.5,29.65,WSW,254,6.0,6.0,67,0.00,,---,0.00,VWS V14.01,2013-04-07 04:43:00,
2013-04-06 23:47:00,57.2,47.1,29.65,WSW,242,5.0,12.0,69,0.00,,---,0.00,VWS V14.01,2013-04-07 04:47:00,
2013-04-06 23:48:00,57.2,47.1,29.65,WSW,248,4.0,12.0,69,0.00,,---,0.00,VWS V14.01,2013-04-07 04:48:00,
2013-04-06 23:52:00,56.8,47.1,29.66,WSW,246,5.0,12.0,70,0.00,,---,0.00,VWS V14.01,2013-04-07 04:52:00,
2013-04-06 23:53:00,56.8,47.1,29.66,WSW,248,5.0,12.0,70,0.00,,---,0.00,VWS V14.01,2013-04-07 04:53:00,
2013-04-06 23:57:00,57.5,47.8,29.66,West,271,5.0,14.0,70,0.00,,---,0.00,VWS V14.01,2013-04-07 04:57:00,
2013-04-06 23:58:00,57.5,47.4,29.66,WNW,284,6.0,14.0,69,0.00,,---,0.00,VWS V14.01,2013-04-07 04:58:00,
2013-04-06 23:59:00,58.0,47.1,29.66,WNW,292,10.0,14.0,67,0.00,,---,0.00,VWS V14.01,2013-04-07 04:59:00,